IT9IJI-13 Weather Reports


Display with metric or nautical units.
time (UTC)temp
F
wind
direction
speed
MPH
gust
MPH
rain 1hr
in
rain 24hr
in
rain mn
in
humidity
%
barometer
mb
20260509015203 66 292 3.0 10.0 0.00 0.00 0.00 79 1015.1
20260509015103 66 291 3.0 10.0 0.00 0.00 0.00 79 1015.1
20260509015003 66 293 2.0 7.0 0.00 0.00 0.00 78 1015.1
20260509014903 66 295 2.0 7.0 0.00 0.00 0.00 78 1015.1
20260509014803 66 296 2.0 7.0 0.00 0.00 0.00 78 1015.1
20260509014703 66 293 2.0 7.0 0.00 0.00 0.00 78 1015.1
20260509014603 66 293 2.0 7.0 0.00 0.00 0.00 78 1015.2
20260509014503 66 294 1.0 7.0 0.00 0.00 0.00 78 1015.2
20260509014403 66 295 2.0 7.0 0.00 0.00 0.00 78 1015.1
20260509014303 66 296 2.0 7.0 0.00 0.00 0.00 78 1015.1
20260509014203 66 295 2.0 6.0 0.00 0.00 0.00 78 1015.2
20260509014103 66 297 1.0 6.0 0.00 0.00 0.00 78 1015.1
20260509014003 66 297 1.0 6.0 0.00 0.00 0.00 78 1015.1
20260509013903 66 298 1.0 6.0 0.00 0.00 0.00 78 1015.0
20260509013803 66 298 1.0 6.0 0.00 0.00 0.00 78 1015.1
20260509013703 66 298 1.0 6.0 0.00 0.00 0.00 78 1015.1
20260509013603 66 298 1.0 6.0 0.00 0.00 0.00 78 1015.1
20260509013503 66 297 1.0 6.0 0.00 0.00 0.00 78 1015.0
20260509013403 66 301 1.0 6.0 0.00 0.00 0.00 78 1014.9
20260509013303 66 296 0.0 4.0 0.00 0.00 0.00 78 1014.9
20260509013203 66 298 0.0 4.0 0.00 0.00 0.00 78 1014.9
20260509013103 66 299 1.0 4.0 0.00 0.00 0.00 78 1014.9
20260509013003 66 300 1.0 5.0 0.00 0.00 0.00 78 1014.9
20260509012903 66 299 1.0 6.0 0.00 0.00 0.00 78 1014.9
20260509012803 66 300 1.0 6.0 0.00 0.00 0.00 78 1014.8
20260509012703 66 300 1.0 6.0 0.00 0.00 0.00 78 1014.8
20260509012603 66 300 1.0 6.0 0.00 0.00 0.00 78 1014.9
20260509012503 66 298 1.0 6.0 0.00 0.00 0.00 78 1014.9
20260509012403 66 296 1.0 6.0 0.00 0.00 0.00 78 1014.9
20260509012306 66 296 1.0 6.0 0.00 0.00 0.00 78 1014.9
20260509012203 66 295 1.0 6.0 0.00 0.00 0.00 78 1014.8
20260509012103 66 293 1.0 6.0 0.00 0.00 0.00 78 1014.9
20260509012003 66 289 0.0 6.0 0.00 0.00 0.00 78 1015.0
20260509011903 66 288 0.0 5.0 0.00 0.00 0.00 78 1014.8
20260509011803 66 288 0.0 5.0 0.00 0.00 0.00 78 1014.9
20260509011703 66 301 1.0 5.0 0.00 0.00 0.00 78 1014.9
20260509011603 66 299 1.0 7.0 0.00 0.00 0.00 78 1015.0
20260509011503 66 303 1.0 7.0 0.00 0.00 0.00 78 1014.9
20260509011403 66 305 1.0 7.0 0.00 0.00 0.00 78 1014.8
20260509011303 66 304 0.0 7.0 0.00 0.00 0.00 78 1014.8
20260509011203 66 304 0.0 7.0 0.00 0.00 0.00 78 1014.9
20260509011103 66 304 0.0 7.0 0.00 0.00 0.00 78 1014.8
20260509011003 66 305 1.0 7.0 0.00 0.00 0.00 78 1014.8
20260509010903 66 306 1.0 7.0 0.00 0.00 0.00 78 1014.8
20260509010803 66 307 1.0 7.0 0.00 0.00 0.00 78 1014.8
20260509010703 66 298 0.0 7.0 0.00 0.00 0.00 78 1014.8
20260509010603 66 304 0.0 4.0 0.00 0.00 0.00 78 1014.9
20260509010503 66 306 0.0 4.0 0.00 0.00 0.00 78 1014.8
20260509010403 66 333 0.0 1.0 0.00 0.00 0.00 78 1014.8
20260509010303 66 139 0.0 3.0 0.00 0.00 0.00 78 1014.8
20260509010203 66 324 0.0 5.0 0.00 0.00 0.00 78 1014.8
20260509010003 66 303 0.0 5.0 0.00 0.00 0.00 78 1014.8
20260509005904 66 303 0.0 5.0 0.00 0.00 0.00 78 1014.8
20260509005804 66 300 1.0 5.0 0.00 0.00 0.00 78 1014.9
20260509005704 66 301 1.0 5.0 0.00 0.00 0.00 78 1014.8
20260509005604 66 302 1.0 5.0 0.00 0.00 0.00 78 1014.7
20260509005504 66 302 1.0 5.0 0.00 0.00 0.00 78 1014.8
20260509005404 66 299 1.0 5.0 0.00 0.00 0.00 78 1014.9
20260509005306 66 299 1.0 5.0 0.00 0.00 0.00 77 1014.9
20260509005204 66 295 1.0 4.0 0.00 0.00 0.00 77 1014.9
20260509005104 66 293 1.0 4.0 0.00 0.00 0.00 77 1014.9
20260509005004 66 295 0.0 4.0 0.00 0.00 0.00 77 1014.9
20260509004904 66 295 0.0 4.0 0.00 0.00 0.00 77 1015.0
20260509004804 66 296 0.0 4.0 0.00 0.00 0.00 77 1014.9
20260509004704 66 295 0.0 4.0 0.00 0.00 0.00 77 1014.9
20260509004604 66 294 1.0 6.0 0.00 0.00 0.00 77 1014.9
20260509004504 66 293 1.0 6.0 0.00 0.00 0.00 77 1015.0
20260509004404 66 295 1.0 8.0 0.00 0.00 0.00 77 1015.0
20260509004304 66 294 1.0 8.0 0.00 0.00 0.00 77 1015.1
20260509004204 66 294 1.0 8.0 0.00 0.00 0.00 77 1015.1
20260509004104 66 295 1.0 8.0 0.00 0.00 0.00 77 1015.1
20260509004004 66 294 1.0 8.0 0.00 0.00 0.00 76 1015.1
20260509003904 66 295 1.0 8.0 0.00 0.00 0.00 76 1015.0
20260509003804 66 295 1.0 8.0 0.00 0.00 0.00 76 1014.9
20260509003704 66 296 1.0 8.0 0.00 0.00 0.00 76 1015.0
20260509003604 66 296 1.0 8.0 0.00 0.00 0.00 76 1015.1
20260509003504 66 296 1.0 8.0 0.00 0.00 0.00 76 1015.1
20260509003404 66 296 1.0 7.0 0.00 0.00 0.00 75 1015.1
20260509003304 66 300 0.0 5.0 0.00 0.00 0.00 75 1015.0
20260509003204 66 300 0.0 5.0 0.00 0.00 0.00 75 1015.1
20260509003104 66 301 0.0 5.0 0.00 0.00 0.00 75 1015.1
20260509003004 66 303 0.0 5.0 0.00 0.00 0.00 75 1015.0
20260509002904 66 300 0.0 5.0 0.00 0.00 0.00 75 1015.0
20260509002804 66 300 0.0 5.0 0.00 0.00 0.00 75 1015.1
20260509002704 66 292 0.0 2.0 0.00 0.00 0.00 75 1015.1
20260509002604 66 292 0.0 2.0 0.00 0.00 0.00 75 1015.1
20260509002504 66 292 0.0 2.0 0.00 0.00 0.00 75 1015.1
20260509002404 66 295 0.0 4.0 0.00 0.00 0.00 75 1015.2
20260509002306 66 292 0.0 4.0 0.00 0.00 0.00 75 1015.2
20260509002204 66 292 0.0 4.0 0.00 0.00 0.00 75 1015.1
20260509002104 66 286 1.0 5.0 0.00 0.00 0.00 75 1015.2
20260509002004 66 291 1.0 5.0 0.00 0.00 0.00 75 1015.2
20260509001904 66 296 1.0 5.0 0.00 0.00 0.00 75 1015.1
20260509001804 66 295 1.0 5.0 0.00 0.00 0.00 75 1015.1
20260509001704 66 295 1.0 6.0 0.00 0.00 0.00 75 1015.1
20260509001604 66 298 2.0 6.0 0.00 0.00 0.00 75 1015.1
20260509001504 66 299 2.0 6.0 0.00 0.00 0.00 75 1015.0
20260509001404 66 297 2.0 6.0 0.00 0.00 0.00 75 1015.1
20260509001304 66 300 2.0 6.0 0.00 0.00 0.00 75 1015.1
20260509001203 66 300 2.0 6.0 0.00 0.00 0.00 75 1015.0
20260509001103 66 300 2.0 6.0 0.00 0.00 0.00 75 1015.0
20260509001004 66 300 2.0 6.0 0.00 0.00 0.00 76 1014.9
20260509000904 66 300 2.0 6.0 0.00 0.00 0.00 76 1015.0
20260509000803 66 301 2.0 6.0 0.00 0.00 0.00 76 1014.9
20260509000704 66 304 2.0 6.0 0.00 0.00 0.00 76 1014.9
20260509000603 66 304 2.0 6.0 0.00 0.00 0.00 76 1014.9
20260509000503 66 299 2.0 8.0 0.00 0.00 0.00 76 1015.0
20260509000403 66 299 2.0 9.0 0.00 0.00 0.00 76 1014.9
20260509000304 66 295 3.0 9.0 0.00 0.00 0.00 76 1014.9
20260509000204 66 295 3.0 9.0 0.00 0.00 0.00 76 1015.0
20260509000103 66 294 2.0 9.0 0.00 0.00 0.00 76 1014.8
20260509000004 66 294 2.0 9.0 0.00 0.00 0.00 76 1014.8
20260508235903 66 294 2.0 9.0 0.00 0.00 0.00 76 1014.8
20260508235803 66 294 2.0 9.0 0.00 0.00 0.00 76 1015.0
20260508235703 66 295 2.0 9.0 0.00 0.00 0.00 76 1015.0
20260508235603 66 294 3.0 9.0 0.00 0.00 0.00 76 1014.9
20260508235503 66 296 2.0 9.0 0.00 0.00 0.00 76 1014.9
20260508235403 66 296 2.0 7.0 0.00 0.00 0.00 75 1014.8
20260508235306 66 297 2.0 7.0 0.00 0.00 0.00 75 1014.9
20260508235203 66 297 2.0 7.0 0.00 0.00 0.00 75 1014.9
20260508235103 66 298 2.0 7.0 0.00 0.00 0.00 75 1014.8
20260508235003 66 297 2.0 7.0 0.00 0.00 0.00 75 1014.9
20260508234903 66 298 2.0 7.0 0.00 0.00 0.00 75 1014.9
20260508234803 66 299 3.0 10.0 0.00 0.00 0.00 75 1015.1
20260508234703 66 299 3.0 10.0 0.00 0.00 0.00 76 1015.0
20260508234603 66 299 3.0 10.0 0.00 0.00 0.00 76 1014.9
20260508234503 66 298 3.0 10.0 0.00 0.00 0.00 76 1015.0
20260508234403 66 299 3.0 10.0 0.00 0.00 0.00 76 1015.0
20260508234303 66 300 2.0 10.0 0.00 0.00 0.00 76 1014.9
20260508234203 66 300 3.0 10.0 0.00 0.00 0.00 76 1015.0
20260508234103 66 300 3.0 10.0 0.00 0.00 0.00 76 1015.0
20260508234003 66 302 2.0 10.0 0.00 0.00 0.00 76 1015.0
20260508233903 66 301 2.0 10.0 0.00 0.00 0.00 76 1015.0
20260508233803 66 299 1.0 8.0 0.00 0.00 0.00 75 1015.0
20260508233703 66 296 1.0 7.0 0.00 0.00 0.00 75 1015.0
20260508233603 66 297 1.0 7.0 0.00 0.00 0.00 75 1014.9
20260508233503 66 297 1.0 7.0 0.00 0.00 0.00 75 1015.0
20260508233403 66 296 1.0 7.0 0.00 0.00 0.00 75 1015.0
20260508233303 66 295 1.0 7.0 0.00 0.00 0.00 75 1015.1
20260508233203 66 291 1.0 4.0 0.00 0.00 0.00 75 1015.1
20260508233103 66 290 0.0 4.0 0.00 0.00 0.00 75 1015.1
20260508233003 66 293 0.0 4.0 0.00 0.00 0.00 75 1015.1
20260508232903 66 294 1.0 3.0 0.00 0.00 0.00 75 1015.1
20260508232803 66 283 0.0 3.0 0.00 0.00 0.00 75 1015.0
20260508232703 67 289 1.0 6.0 0.00 0.00 0.00 75 1015.1
20260508232603 66 297 1.0 6.0 0.00 0.00 0.00 75 1015.1
20260508232503 66 297 1.0 6.0 0.00 0.00 0.00 75 1015.2
20260508232403 66 297 1.0 6.0 0.00 0.00 0.00 75 1015.2
20260508232306 66 297 1.0 6.0 0.00 0.00 0.00 75 1015.2
20260508232203 66 296 1.0 6.0 0.00 0.00 0.00 75 1015.1
20260508232103 67 295 1.0 6.0 0.00 0.00 0.00 74 1015.1
20260508232003 67 295 1.0 6.0 0.00 0.00 0.00 74 1015.2
20260508231903 67 295 1.0 6.0 0.00 0.00 0.00 74 1015.2
20260508231803 67 298 1.0 6.0 0.00 0.00 0.00 74 1015.2
20260508231703 67 300 1.0 6.0 0.00 0.00 0.00 74 1015.2
20260508231603 67 293 0.0 4.0 0.00 0.00 0.00 74 1015.2
20260508231503 67 294 0.0 4.0 0.00 0.00 0.00 74 1015.2
20260508231403 67 294 1.0 4.0 0.00 0.00 0.00 74 1015.2
20260508231303 67 294 1.0 4.0 0.00 0.00 0.00 74 1015.2
20260508231203 67 296 1.0 3.0 0.00 0.00 0.00 73 1015.2
20260508231003 67 297 1.0 7.0 0.00 0.00 0.00 73 1015.2
20260508230903 67 297 1.0 7.0 0.00 0.00 0.00 73 1015.1
20260508230803 67 296 1.0 7.0 0.00 0.00 0.00 73 1015.2
20260508230703 67 295 1.0 7.0 0.00 0.00 0.00 73 1015.2
20260508230603 67 295 1.0 7.0 0.00 0.00 0.00 73 1015.3
20260508230503 67 296 1.0 7.0 0.00 0.00 0.00 72 1015.2
20260508230403 67 297 1.0 7.0 0.00 0.00 0.00 72 1015.2
20260508230303 67 296 2.0 7.0 0.00 0.00 0.00 72 1015.2
20260508230203 67 296 2.0 7.0 0.00 0.00 0.00 72 1015.2
20260508230103 67 296 2.0 6.0 0.00 0.00 0.00 72 1015.2
20260508230003 67 298 2.0 9.0 0.00 0.00 0.00 72 1015.2
20260508225903 67 298 2.0 9.0 0.00 0.00 0.00 72 1015.3
20260508225803 67 300 2.0 9.0 0.00 0.00 0.00 72 1015.2
20260508225703 67 300 2.0 9.0 0.00 0.00 0.00 72 1015.2
20260508225603 67 301 2.0 9.0 0.00 0.00 0.00 72 1015.3
20260508225503 67 300 3.0 9.0 0.00 0.00 0.00 72 1015.4
20260508225403 67 301 2.0 9.0 0.00 0.00 0.00 71 1015.4
20260508225306 67 302 2.0 9.0 0.00 0.00 0.00 71 1015.3
20260508225203 67 303 2.0 9.0 0.00 0.00 0.00 71 1015.3
20260508225103 67 303 1.0 9.0 0.00 0.00 0.00 71 1015.4
20260508225003 67 301 1.0 7.0 0.00 0.00 0.00 71 1015.3
20260508224903 67 298 1.0 7.0 0.00 0.00 0.00 70 1015.2
20260508224803 67 296 1.0 7.0 0.00 0.00 0.00 70 1015.3
20260508224703 67 296 1.0 7.0 0.00 0.00 0.00 70 1015.4
20260508224603 67 297 1.0 6.0 0.00 0.00 0.00 70 1015.5
20260508224503 67 299 0.0 4.0 0.00 0.00 0.00 69 1015.3
20260508224403 67 300 1.0 4.0 0.00 0.00 0.00 69 1015.2
20260508224303 67 297 1.0 6.0 0.00 0.00 0.00 69 1015.2
20260508224203 67 296 1.0 6.0 0.00 0.00 0.00 69 1015.2
20260508224103 67 296 1.0 6.0 0.00 0.00 0.00 69 1015.2
20260508224003 67 296 1.0 6.0 0.00 0.00 0.00 69 1015.2
20260508223903 67 297 1.0 6.0 0.00 0.00 0.00 69 1015.3
20260508223803 67 296 1.0 6.0 0.00 0.00 0.00 69 1015.2
20260508223703 67 296 1.0 6.0 0.00 0.00 0.00 68 1015.2
20260508223603 67 296 1.0 6.0 0.00 0.00 0.00 68 1015.2
20260508223503 67 296 2.0 6.0 0.00 0.00 0.00 68 1015.1
20260508223403 67 295 2.0 6.0 0.00 0.00 0.00 68 1015.2
20260508223303 67 297 1.0 5.0 0.00 0.00 0.00 68 1015.2
20260508223203 67 297 1.0 5.0 0.00 0.00 0.00 68 1015.2
20260508223103 67 298 1.0 5.0 0.00 0.00 0.00 68 1015.1
20260508223003 67 298 1.0 5.0 0.00 0.00 0.00 68 1015.1
20260508222903 67 297 1.0 5.0 0.00 0.00 0.00 68 1015.1
20260508222803 67 298 1.0 5.0 0.00 0.00 0.00 68 1015.2
20260508222703 67 301 1.0 5.0 0.00 0.00 0.00 67 1015.2
20260508222603 67 299 1.0 6.0 0.00 0.00 0.00 67 1015.2
20260508222503 67 298 2.0 6.0 0.00 0.00 0.00 67 1015.1
20260508222403 67 298 2.0 6.0 0.00 0.00 0.00 67 1015.1
20260508222306 67 296 2.0 6.0 0.00 0.00 0.00 67 1015.1
20260508222203 67 296 2.0 7.0 0.00 0.00 0.00 67 1015.2
20260508222103 67 297 2.0 7.0 0.00 0.00 0.00 66 1015.1
20260508222003 67 297 2.0 7.0 0.00 0.00 0.00 66 1015.1
20260508221903 67 298 2.0 7.0 0.00 0.00 0.00 66 1015.1
20260508221803 67 297 3.0 7.0 0.00 0.00 0.00 66 1015.2
20260508221703 67 296 2.0 7.0 0.00 0.00 0.00 66 1015.3
20260508221603 67 296 2.0 7.0 0.00 0.00 0.00 66 1015.2
20260508221503 67 296 2.0 7.0 0.00 0.00 0.00 65 1015.2
20260508221403 67 296 2.0 7.0 0.00 0.00 0.00 65 1015.2
20260508221303 67 296 2.0 7.0 0.00 0.00 0.00 65 1015.2
20260508221203 67 301 1.0 7.0 0.00 0.00 0.00 64 1015.2
20260508221103 67 300 1.0 5.0 0.00 0.00 0.00 64 1015.1
20260508221003 67 300 1.0 5.0 0.00 0.00 0.00 64 1015.2
20260508220903 67 300 1.0 5.0 0.00 0.00 0.00 64 1015.1
20260508220803 67 302 1.0 4.0 0.00 0.00 0.00 64 1015.1
20260508220703 67 301 1.0 4.0 0.00 0.00 0.00 64 1015.2
20260508220603 67 301 1.0 4.0 0.00 0.00 0.00 64 1015.0
20260508220503 68 302 1.0 4.0 0.00 0.00 0.00 64 1014.9
20260508220403 68 301 1.0 4.0 0.00 0.00 0.00 64 1015.0
20260508220303 67 302 1.0 4.0 0.00 0.00 0.00 64 1015.1
20260508220203 67 294 1.0 4.0 0.00 0.00 0.00 63 1015.1
20260508220041 68 292 0.0 4.0 0.00 0.00 0.00 63 1015.1
20260508215903 68 292 0.0 4.0 0.00 0.00 0.00 63 1015.1
20260508215803 68 292 1.0 4.0 0.00 0.00 0.00 64 1015.2
20260508215703 68 292 0.0 4.0 0.00 0.00 0.00 64 1015.2
20260508215603 68 292 0.0 4.0 0.00 0.00 0.00 64 1015.1
20260508215503 68 292 0.0 4.0 0.00 0.00 0.00 64 1015.2
20260508215403 68 292 0.0 4.0 0.00 0.00 0.00 64 1015.2
20260508215306 68 292 0.0 4.0 0.00 0.00 0.00 64 1015.2
20260508215203 68 294 1.0 5.0 0.00 0.00 0.00 64 1015.2
20260508215103 68 296 1.0 5.0 0.00 0.00 0.00 64 1015.2
20260508215004 68 296 1.0 5.0 0.00 0.00 0.00 64 1015.2
20260508214904 68 295 1.0 6.0 0.00 0.00 0.00 64 1015.1
20260508214804 68 295 1.0 6.0 0.00 0.00 0.00 64 1015.1
20260508214704 68 295 1.0 6.0 0.00 0.00 0.00 64 1015.2
20260508214604 68 295 1.0 6.0 0.00 0.00 0.00 64 1015.2
20260508214504 68 296 1.0 6.0 0.00 0.00 0.00 64 1015.1
20260508214404 67 296 1.0 6.0 0.00 0.00 0.00 64 1015.1
20260508214304 67 296 1.0 6.0 0.00 0.00 0.00 64 1015.1
20260508214204 67 296 1.0 6.0 0.00 0.00 0.00 64 1015.1
20260508214104 67 294 1.0 6.0 0.00 0.00 0.00 65 1015.1
20260508214004 67 294 1.0 6.0 0.00 0.00 0.00 65 1015.1
20260508213904 67 295 1.0 6.0 0.00 0.00 0.00 65 1015.1
20260508213804 67 295 1.0 4.0 0.00 0.00 0.00 65 1015.1
20260508213704 67 292 1.0 6.0 0.00 0.00 0.00 65 1015.1
20260508213604 67 292 1.0 6.0 0.00 0.00 0.00 66 1015.1
20260508213504 67 292 1.0 6.0 0.00 0.00 0.00 66 1015.1
20260508213404 67 295 2.0 6.0 0.00 0.00 0.00 66 1015.1
20260508213304 67 295 2.0 7.0 0.00 0.00 0.00 66 1015.1
20260508213204 67 294 2.0 7.0 0.00 0.00 0.00 65 1015.1
20260508213104 67 295 2.0 7.0 0.00 0.00 0.00 65 1015.1
20260508213004 67 295 2.0 7.0 0.00 0.00 0.00 65 1015.1
20260508212904 67 294 3.0 7.0 0.00 0.00 0.00 65 1015.1
20260508212804 67 294 3.0 7.0 0.00 0.00 0.00 65 1015.0
20260508212704 67 295 3.0 7.0 0.00 0.00 0.00 65 1015.1
20260508212604 67 295 3.0 7.0 0.00 0.00 0.00 65 1015.0
20260508212504 67 295 2.0 7.0 0.00 0.00 0.00 65 1015.0
20260508212404 67 293 2.0 7.0 0.00 0.00 0.00 65 1015.1
20260508212306 67 293 2.0 7.0 0.00 0.00 0.00 66 1015.1
20260508212204 67 294 2.0 6.0 0.00 0.00 0.00 66 1015.0
20260508212104 67 294 1.0 6.0 0.00 0.00 0.00 66 1015.1
20260508212004 67 294 1.0 5.0 0.00 0.00 0.00 67 1015.1
20260508211904 67 294 1.0 5.0 0.00 0.00 0.00 67 1015.0
20260508211804 67 293 1.0 5.0 0.00 0.00 0.00 67 1014.9
20260508211704 67 293 1.0 5.0 0.00 0.00 0.00 68 1015.0
20260508211604 67 293 1.0 5.0 0.00 0.00 0.00 68 1015.1
20260508211504 67 293 1.0 5.0 0.00 0.00 0.00 68 1015.1
20260508211404 67 293 1.0 5.0 0.00 0.00 0.00 68 1015.0
20260508211304 67 293 1.0 5.0 0.00 0.00 0.00 68 1014.9
20260508211203 67 292 1.0 5.0 0.00 0.00 0.00 68 1015.0
20260508211103 67 292 1.0 5.0 0.00 0.00 0.00 68 1015.0
20260508211003 67 296 1.0 5.0 0.00 0.00 0.00 69 1015.0
20260508210904 67 296 1.0 6.0 0.00 0.00 0.00 69 1015.0
20260508210804 67 296 2.0 6.0 0.00 0.00 0.00 69 1015.0
20260508210704 67 296 2.0 6.0 0.00 0.00 0.00 69 1014.9
20260508210603 67 295 2.0 6.0 0.00 0.00 0.00 69 1015.0
20260508210503 67 296 2.0 6.0 0.00 0.00 0.00 70 1014.9
20260508210403 67 296 2.0 6.0 0.00 0.00 0.00 70 1014.9
20260508210304 67 296 2.0 6.0 0.00 0.00 0.00 70 1014.9
20260508210203 67 296 2.0 6.0 0.00 0.00 0.00 70 1014.9
20260508210104 67 295 2.0 6.0 0.00 0.00 0.00 70 1015.0
20260508210004 67 293 2.0 6.0 0.00 0.00 0.00 71 1015.0
20260508205903 67 294 2.0 6.0 0.00 0.00 0.00 71 1014.9
20260508205803 67 293 1.0 6.0 0.00 0.00 0.00 71 1015.0
20260508205703 67 294 1.0 6.0 0.00 0.00 0.00 71 1015.0
20260508205603 67 295 1.0 6.0 0.00 0.00 0.00 71 1015.1
20260508205503 67 296 1.0 6.0 0.00 0.00 0.00 71 1015.0
20260508205403 67 296 2.0 7.0 0.00 0.00 0.00 71 1015.0
20260508205306 67 296 2.0 7.0 0.00 0.00 0.00 71 1015.1
20260508205203 67 296 2.0 7.0 0.00 0.00 0.00 71 1015.0
20260508205103 67 297 2.0 7.0 0.00 0.00 0.00 72 1015.0
20260508205003 67 298 1.0 7.0 0.00 0.00 0.00 72 1015.0
20260508204903 67 297 1.0 7.0 0.00 0.00 0.00 72 1015.1
20260508204803 67 297 2.0 7.0 0.00 0.00 0.00 72 1015.1
20260508204703 67 296 2.0 7.0 0.00 0.00 0.00 72 1015.0
20260508204603 67 296 2.0 7.0 0.00 0.00 0.00 72 1015.0
20260508204503 67 294 1.0 7.0 0.00 0.00 0.00 72 1015.0
20260508204403 67 293 1.0 5.0 0.00 0.00 0.00 72 1015.0
20260508204303 67 293 1.0 5.0 0.00 0.00 0.00 72 1015.0
20260508204203 67 295 1.0 5.0 0.00 0.00 0.00 72 1015.0
20260508204103 67 295 1.0 5.0 0.00 0.00 0.00 72 1015.0
20260508204003 67 295 2.0 5.0 0.00 0.00 0.00 73 1015.0
20260508203904 67 295 2.0 5.0 0.00 0.00 0.00 73 1015.1
20260508203803 67 293 2.0 6.0 0.00 0.00 0.00 73 1015.0
20260508203703 67 292 2.0 7.0 0.00 0.00 0.00 73 1015.0
20260508203603 67 292 2.0 7.0 0.00 0.00 0.00 73 1015.1
20260508203503 67 293 3.0 7.0 0.00 0.00 0.00 73 1015.0
20260508203403 67 294 3.0 7.0 0.00 0.00 0.00 73 1015.1
20260508203303 67 293 4.0 7.0 0.00 0.00 0.00 73 1015.1
20260508203203 67 293 4.0 7.0 0.00 0.00 0.00 73 1015.2
20260508203103 67 293 4.0 7.0 0.00 0.00 0.00 73 1015.1
20260508203003 67 293 4.0 7.0 0.00 0.00 0.00 73 1015.1
20260508202903 67 293 4.0 7.0 0.00 0.00 0.00 73 1015.1
20260508202803 67 294 4.0 7.0 0.00 0.00 0.00 73 1015.1
20260508202703 67 294 3.0 7.0 0.00 0.00 0.00 73 1015.1
20260508202603 67 294 3.0 7.0 0.00 0.00 0.00 73 1015.0
20260508202503 67 295 3.0 7.0 0.00 0.00 0.00 73 1015.0
20260508202403 67 294 3.0 7.0 0.00 0.00 0.00 73 1015.0
20260508202306 67 294 2.0 7.0 0.00 0.00 0.00 73 1015.0
20260508202203 67 295 2.0 7.0 0.00 0.00 0.00 73 1015.0
20260508202103 67 293 2.0 7.0 0.00 0.00 0.00 73 1015.1
20260508202003 67 294 2.0 7.0 0.00 0.00 0.00 73 1015.0
20260508201903 67 294 1.0 7.0 0.00 0.00 0.00 73 1015.1
20260508201803 67 294 2.0 7.0 0.00 0.00 0.00 73 1015.1
20260508201703 67 294 2.0 7.0 0.00 0.00 0.00 73 1015.1
20260508201603 67 295 2.0 7.0 0.00 0.00 0.00 73 1015.1
20260508201503 67 294 2.0 7.0 0.00 0.00 0.00 73 1015.1
20260508201403 67 294 2.0 5.0 0.00 0.00 0.00 73 1015.0
20260508201303 67 295 2.0 5.0 0.00 0.00 0.00 73 1014.9
20260508201203 67 296 1.0 5.0 0.00 0.00 0.00 73 1015.0
20260508201103 67 297 1.0 6.0 0.00 0.00 0.00 73 1015.0
20260508201003 67 297 2.0 6.0 0.00 0.00 0.00 73 1014.9
20260508200903 67 297 2.0 6.0 0.00 0.00 0.00 73 1015.0
20260508200803 67 296 2.0 9.0 0.00 0.00 0.00 73 1015.0
20260508200703 67 298 2.0 9.0 0.00 0.00 0.00 73 1014.9
20260508200603 67 299 2.0 9.0 0.00 0.00 0.00 73 1015.1
20260508200503 67 299 3.0 9.0 0.00 0.00 0.00 73 1015.1
20260508200403 67 299 3.0 9.0 0.00 0.00 0.00 73 1015.0
20260508200303 67 299 4.0 9.0 0.00 0.00 0.00 73 1014.9
20260508200203 67 299 4.0 9.0 0.00 0.00 0.00 73 1015.0
20260508200103 67 300 4.0 9.0 0.00 0.00 0.00 73 1015.0
20260508200003 67 301 4.0 9.0 0.00 0.00 0.00 73 1015.0
20260508195903 67 300 5.0 9.0 0.00 0.00 0.00 73 1015.0
20260508195803 67 301 5.0 10.0 0.00 0.00 0.00 73 1014.8
20260508195703 67 300 5.0 10.0 0.00 0.00 0.00 73 1014.8
20260508195603 67 299 4.0 10.0 0.00 0.00 0.00 73 1014.8
20260508195503 67 299 4.0 10.0 0.00 0.00 0.00 73 1014.9
20260508195403 67 299 4.0 10.0 0.00 0.00 0.00 73 1014.8
20260508195306 67 299 4.0 10.0 0.00 0.00 0.00 73 1014.9
20260508195203 67 299 4.0 10.0 0.00 0.00 0.00 73 1014.9
20260508195103 67 299 4.0 10.0 0.00 0.00 0.00 73 1014.8
20260508195003 67 298 4.0 10.0 0.00 0.00 0.00 73 1014.8
20260508194903 67 298 4.0 10.0 0.00 0.00 0.00 73 1014.9
20260508194803 67 298 4.0 10.0 0.00 0.00 0.00 72 1014.9
20260508194703 67 300 3.0 8.0 0.00 0.00 0.00 72 1014.8
20260508194603 68 300 3.0 8.0 0.00 0.00 0.00 72 1014.8
20260508194503 68 298 4.0 8.0 0.00 0.00 0.00 72 1014.9
20260508194403 67 297 4.0 8.0 0.00 0.00 0.00 72 1014.9
20260508194303 68 297 3.0 8.0 0.00 0.00 0.00 72 1014.9
20260508194203 68 294 3.0 8.0 0.00 0.00 0.00 72 1014.9
20260508194103 68 293 3.0 8.0 0.00 0.00 0.00 72 1015.0
20260508194003 68 294 3.0 8.0 0.00 0.00 0.00 72 1014.8
20260508193903 68 294 3.0 8.0 0.00 0.00 0.00 72 1014.8
20260508193803 68 293 3.0 8.0 0.00 0.00 0.00 72 1014.8
20260508193703 68 292 4.0 8.0 0.00 0.00 0.00 72 1014.8
20260508193603 68 293 4.0 8.0 0.00 0.00 0.00 72 1014.8
20260508193503 68 292 4.0 8.0 0.00 0.00 0.00 72 1014.7
20260508193403 68 294 4.0 8.0 0.00 0.00 0.00 72 1014.7
20260508193303 68 294 4.0 8.0 0.00 0.00 0.00 72 1014.7
20260508193203 68 295 3.0 8.0 0.00 0.00 0.00 72 1014.8
20260508193103 68 296 3.0 8.0 0.00 0.00 0.00 71 1014.7
20260508193003 68 295 3.0 8.0 0.00 0.00 0.00 71 1014.7
20260508192903 68 296 3.0 8.0 0.00 0.00 0.00 71 1014.7
20260508192803 68 294 3.0 8.0 0.00 0.00 0.00 71 1014.7
20260508192703 68 297 3.0 11.0 0.00 0.00 0.00 71 1014.8
20260508192603 68 297 3.0 11.0 0.00 0.00 0.00 71 1014.8
20260508192503 68 298 3.0 11.0 0.00 0.00 0.00 71 1014.6
20260508192403 68 298 4.0 11.0 0.00 0.00 0.00 71 1014.6
20260508192306 68 297 4.0 11.0 0.00 0.00 0.00 71 1014.6
20260508192204 68 298 4.0 11.0 0.00 0.00 0.00 71 1014.6
20260508192104 68 296 4.0 11.0 0.00 0.00 0.00 71 1014.5
20260508192004 68 297 4.0 11.0 0.00 0.00 0.00 71 1014.6
20260508191904 68 295 4.0 11.0 0.00 0.00 0.00 71 1014.5
20260508191804 68 298 4.0 11.0 0.00 0.00 0.00 71 1014.6
20260508191704 68 295 4.0 10.0 0.00 0.00 0.00 70 1014.5
20260508191604 68 295 4.0 10.0 0.00 0.00 0.00 70 1014.5
20260508191504 68 294 4.0 10.0 0.00 0.00 0.00 70 1014.5
20260508191404 68 294 3.0 9.0 0.00 0.00 0.00 70 1014.5
20260508191304 68 295 3.0 9.0 0.00 0.00 0.00 69 1014.5
20260508191204 68 293 3.0 9.0 0.00 0.00 0.00 69 1014.5
20260508191104 68 293 3.0 8.0 0.00 0.00 0.00 69 1014.5
20260508191004 68 293 3.0 8.0 0.00 0.00 0.00 69 1014.5
20260508190904 68 293 3.0 8.0 0.00 0.00 0.00 69 1014.4
20260508190804 68 294 3.0 8.0 0.00 0.00 0.00 69 1014.4
20260508190704 68 294 3.0 9.0 0.00 0.00 0.00 69 1014.4
20260508190604 68 293 3.0 9.0 0.00 0.00 0.00 68 1014.5
20260508190504 68 293 3.0 9.0 0.00 0.00 0.00 68 1014.5
20260508190404 68 292 3.0 9.0 0.00 0.00 0.00 68 1014.4
20260508190304 68 292 4.0 9.0 0.00 0.00 0.00 68 1014.4
20260508190204 68 292 4.0 9.0 0.00 0.00 0.00 68 1014.4
20260508190104 68 292 3.0 9.0 0.00 0.00 0.00 68 1014.3
20260508190004 68 293 3.0 9.0 0.00 0.00 0.00 68 1014.4
20260508185904 68 293 3.0 9.0 0.00 0.00 0.00 68 1014.4
20260508185804 68 293 3.0 9.0 0.00 0.00 0.00 67 1014.3
20260508185704 68 293 3.0 9.0 0.00 0.00 0.00 67 1014.3
20260508185604 68 294 3.0 9.0 0.00 0.00 0.00 67 1014.2
20260508185504 68 294 3.0 9.0 0.00 0.00 0.00 67 1014.3
20260508185404 68 295 3.0 9.0 0.00 0.00 0.00 67 1014.2
20260508185306 68 293 3.0 7.0 0.00 0.00 0.00 67 1014.2
20260508185204 68 293 3.0 9.0 0.00 0.00 0.00 67 1014.2
20260508185104 68 293 3.0 9.0 0.00 0.00 0.00 67 1014.2
20260508185004 68 293 3.0 9.0 0.00 0.00 0.00 67 1014.2
20260508184904 68 293 3.0 9.0 0.00 0.00 0.00 67 1014.2
20260508184804 68 289 3.0 9.0 0.00 0.00 0.00 67 1014.1
20260508184704 68 290 2.0 9.0 0.00 0.00 0.00 68 1014.1
20260508184604 68 290 2.0 9.0 0.00 0.00 0.00 68 1014.2
20260508184504 68 290 2.0 9.0 0.00 0.00 0.00 68 1014.1
20260508184404 68 292 3.0 9.0 0.00 0.00 0.00 68 1014.2
20260508184304 68 293 3.0 9.0 0.00 0.00 0.00 68 1014.2
20260508184204 68 294 2.0 9.0 0.00 0.00 0.00 68 1014.2
20260508184104 68 294 3.0 9.0 0.00 0.00 0.00 68 1014.2
20260508184004 68 293 3.0 9.0 0.00 0.00 0.00 68 1014.1
20260508183903 68 295 3.0 9.0 0.00 0.00 0.00 68 1014.1
20260508183803 68 297 3.0 9.0 0.00 0.00 0.00 68 1014.1
20260508183703 68 296 3.0 9.0 0.00 0.00 0.00 68 1014.0
20260508183603 68 296 3.0 9.0 0.00 0.00 0.00 68 1014.0
20260508183503 68 295 3.0 9.0 0.00 0.00 0.00 68 1014.0
20260508183403 68 294 3.0 7.0 0.00 0.00 0.00 68 1013.9
20260508183303 68 296 3.0 9.0 0.00 0.00 0.00 68 1013.9
20260508183203 68 296 3.0 9.0 0.00 0.00 0.00 68 1014.0
20260508183103 68 297 3.0 9.0 0.00 0.00 0.00 68 1014.0
20260508183003 68 298 3.0 9.0 0.00 0.00 0.00 68 1013.9
20260508182903 68 298 4.0 9.0 0.00 0.00 0.00 68 1013.9
20260508182803 68 297 3.0 9.0 0.00 0.00 0.00 68 1013.8
20260508182703 68 297 4.0 9.0 0.00 0.00 0.00 68 1013.8
20260508182603 68 298 4.0 9.0 0.00 0.00 0.00 68 1013.9
20260508182503 68 299 4.0 9.0 0.00 0.00 0.00 68 1013.9
20260508182403 68 299 4.0 9.0 0.00 0.00 0.00 67 1013.8
20260508182306 68 297 4.0 9.0 0.00 0.00 0.00 67 1013.9
20260508182203 68 296 4.0 9.0 0.00 0.00 0.00 67 1013.7
20260508182103 68 296 4.0 9.0 0.00 0.00 0.00 67 1013.8
20260508182003 68 294 3.0 9.0 0.00 0.00 0.00 67 1013.8
20260508181903 68 293 3.0 8.0 0.00 0.00 0.00 67 1013.8
20260508181803 68 293 3.0 8.0 0.00 0.00 0.00 67 1013.8
20260508181703 68 293 3.0 8.0 0.00 0.00 0.00 67 1013.7
20260508181603 68 290 4.0 8.0 0.00 0.00 0.00 67 1013.7
20260508181503 68 288 4.0 8.0 0.00 0.00 0.00 67 1013.6
20260508181403 68 288 3.0 8.0 0.00 0.00 0.00 67 1013.7
20260508181303 69 288 3.0 8.0 0.00 0.00 0.00 67 1013.7
20260508181203 69 289 3.0 10.0 0.00 0.00 0.00 67 1013.7
20260508181103 69 290 3.0 10.0 0.00 0.00 0.00 67 1013.7
20260508181003 69 291 3.0 10.0 0.00 0.00 0.00 67 1013.7
20260508180903 69 291 3.0 10.0 0.00 0.00 0.00 66 1013.6
20260508180803 69 292 3.0 10.0 0.00 0.00 0.00 67 1013.7
20260508180703 69 290 3.0 11.0 0.00 0.00 0.00 66 1013.7
20260508180603 69 293 3.0 11.0 0.00 0.00 0.00 66 1013.7
20260508180503 69 294 3.0 11.0 0.00 0.00 0.00 66 1013.6
20260508180403 69 293 3.0 11.0 0.00 0.00 0.00 66 1013.5
20260508180303 69 293 3.0 11.0 0.00 0.00 0.00 66 1013.6
20260508180203 69 293 3.0 11.0 0.00 0.00 0.00 66 1013.5
20260508180103 69 291 3.0 11.0 0.00 0.00 0.00 66 1013.6
20260508180003 69 290 3.0 11.0 0.00 0.00 0.00 65 1013.4
20260508175903 69 289 3.0 11.0 0.00 0.00 0.00 66 1013.5
20260508175803 69 289 3.0 11.0 0.00 0.00 0.00 66 1013.5
20260508175703 69 288 3.0 7.0 0.00 0.00 0.00 66 1013.5
20260508175603 69 289 3.0 9.0 0.00 0.00 0.00 66 1013.4
20260508175503 69 287 3.0 10.0 0.00 0.00 0.00 65 1013.4
20260508175403 69 288 3.0 10.0 0.00 0.00 0.00 65 1013.4
20260508175306 69 288 3.0 10.0 0.00 0.00 0.00 65 1013.5
20260508175203 69 288 2.0 10.0 0.00 0.00 0.00 65 1013.5
20260508175103 69 289 2.0 10.0 0.00 0.00 0.00 65 1013.4
20260508175003 69 289 2.0 10.0 0.00 0.00 0.00 65 1013.5
20260508174903 69 290 2.0 10.0 0.00 0.00 0.00 65 1013.5
20260508174803 69 288 3.0 10.0 0.00 0.00 0.00 65 1013.4
20260508174703 69 288 2.0 10.0 0.00 0.00 0.00 65 1013.4
20260508174603 69 288 2.0 10.0 0.00 0.00 0.00 65 1013.5
20260508174503 69 290 2.0 10.0 0.00 0.00 0.00 65 1013.4
20260508174403 69 287 3.0 10.0 0.00 0.00 0.00 65 1013.4
20260508174303 69 288 3.0 10.0 0.00 0.00 0.00 65 1013.4
20260508174203 69 285 3.0 10.0 0.00 0.00 0.00 65 1013.4
20260508174103 69 285 3.0 10.0 0.00 0.00 0.00 65 1013.3
20260508174003 69 289 3.0 10.0 0.00 0.00 0.00 65 1013.3
20260508173903 69 288 3.0 10.0 0.00 0.00 0.00 66 1013.4
20260508173803 69 287 3.0 10.0 0.00 0.00 0.00 66 1013.4
20260508173703 70 289 3.0 10.0 0.00 0.00 0.00 66 1013.3
20260508173603 70 289 4.0 10.0 0.00 0.00 0.00 66 1013.2
20260508173503 70 287 3.0 10.0 0.00 0.00 0.00 66 1013.2
20260508173403 70 290 3.0 7.0 0.00 0.00 0.00 66 1013.2
20260508173303 70 290 3.0 7.0 0.00 0.00 0.00 66 1013.3
20260508173203 70 290 3.0 7.0 0.00 0.00 0.00 66 1013.3
20260508173103 70 291 3.0 7.0 0.00 0.00 0.00 66 1013.2
20260508173003 70 288 3.0 7.0 0.00 0.00 0.00 66 1013.1
20260508172903 70 289 3.0 12.0 0.00 0.00 0.00 66 1013.2
20260508172803 70 290 3.0 12.0 0.00 0.00 0.00 66 1013.2
20260508172703 70 292 3.0 12.0 0.00 0.00 0.00 66 1013.1
20260508172603 70 293 4.0 12.0 0.00 0.00 0.00 66 1013.0
20260508172503 70 291 4.0 12.0 0.00 0.00 0.00 66 1013.0
20260508172403 70 291 4.0 12.0 0.00 0.00 0.00 66 1013.1
20260508172306 70 293 4.0 12.0 0.00 0.00 0.00 66 1013.1
20260508172203 70 293 4.0 12.0 0.00 0.00 0.00 66 1013.0
20260508172103 70 292 4.0 12.0 0.00 0.00 0.00 66 1013.1
20260508172003 70 291 5.0 12.0 0.00 0.00 0.00 66 1013.1
20260508171903 70 291 4.0 9.0 0.00 0.00 0.00 66 1013.0
20260508171803 70 290 4.0 9.0 0.00 0.00 0.00 66 1013.0
20260508171703 70 289 4.0 9.0 0.00 0.00 0.00 66 1013.0
20260508171603 70 288 4.0 9.0 0.00 0.00 0.00 66 1013.0
20260508171503 70 288 4.0 9.0 0.00 0.00 0.00 65 1013.0
20260508171403 71 288 3.0 9.0 0.00 0.00 0.00 65 1013.0
20260508171303 71 286 3.0 9.0 0.00 0.00 0.00 65 1012.9
20260508171203 71 287 3.0 9.0 0.00 0.00 0.00 64 1012.9
20260508171103 71 289 3.0 9.0 0.00 0.00 0.00 64 1013.0
20260508171003 71 288 3.0 10.0 0.00 0.00 0.00 64 1012.8
20260508170903 71 288 3.0 10.0 0.00 0.00 0.00 64 1012.8
20260508170803 71 286 3.0 10.0 0.00 0.00 0.00 64 1012.9
20260508170704 71 287 3.0 10.0 0.00 0.00 0.00 64 1012.9
20260508170604 71 285 2.0 10.0 0.00 0.00 0.00 63 1012.9
20260508170504 71 284 2.0 10.0 0.00 0.00 0.00 63 1012.7
20260508170404 71 287 3.0 10.0 0.00 0.00 0.00 63 1012.8
20260508170304 71 285 3.0 10.0 0.00 0.00 0.00 63 1012.7
20260508170204 71 284 2.0 10.0 0.00 0.00 0.00 63 1012.7
20260508170104 71 284 2.0 10.0 0.00 0.00 0.00 62 1012.7
20260508170004 71 282 2.0 8.0 0.00 0.00 0.00 62 1012.7
20260508165904 71 283 2.0 8.0 0.00 0.00 0.00 62 1012.7
20260508165804 71 287 2.0 8.0 0.00 0.00 0.00 62 1012.6
20260508165704 71 285 2.0 8.0 0.00 0.00 0.00 62 1012.7
20260508165604 71 288 2.0 8.0 0.00 0.00 0.00 62 1012.6
20260508165504 72 288 2.0 8.0 0.00 0.00 0.00 61 1012.7
20260508165404 72 294 2.0 8.0 0.00 0.00 0.00 62 1012.7
20260508165306 72 294 2.0 8.0 0.00 0.00 0.00 61 1012.7
20260508165204 72 290 2.0 8.0 0.00 0.00 0.00 62 1012.7
20260508165104 72 289 1.0 8.0 0.00 0.00 0.00 61 1012.6
20260508165004 72 290 1.0 8.0 0.00 0.00 0.00 61 1012.6
20260508164904 72 291 2.0 8.0 0.00 0.00 0.00 61 1012.7
20260508164804 72 295 2.0 8.0 0.00 0.00 0.00 61 1012.7
20260508164704 72 296 2.0 8.0 0.00 0.00 0.00 61 1012.6
20260508164604 72 295 2.0 8.0 0.00 0.00 0.00 60 1012.7
20260508164504 72 296 2.0 10.0 0.00 0.00 0.00 61 1012.6
20260508164404 72 296 2.0 10.0 0.00 0.00 0.00 61 1012.5
20260508164304 72 294 3.0 10.0 0.00 0.00 0.00 61 1012.5
20260508164204 72 296 2.0 10.0 0.00 0.00 0.00 61 1012.5
20260508164104 72 295 2.0 10.0 0.00 0.00 0.00 60 1012.5
20260508164004 72 296 2.0 10.0 0.00 0.00 0.00 60 1012.5
20260508163904 72 297 2.0 10.0 0.00 0.00 0.00 60 1012.5
20260508163804 72 294 2.0 10.0 0.00 0.00 0.00 60 1012.5
20260508163704 73 294 2.0 10.0 0.00 0.00 0.00 60 1012.5
20260508163604 73 294 3.0 10.0 0.00 0.00 0.00 60 1012.5
20260508163504 73 295 2.0 10.0 0.00 0.00 0.00 60 1012.5
20260508163404 73 292 2.0 8.0 0.00 0.00 0.00 59 1012.5
20260508163304 73 294 3.0 8.0 0.00 0.00 0.00 59 1012.5
20260508163203 73 295 3.0 8.0 0.00 0.00 0.00 58 1012.5
20260508163104 73 296 3.0 8.0 0.00 0.00 0.00 58 1012.6
20260508163004 73 297 3.0 8.0 0.00 0.00 0.00 57 1012.6
20260508162904 73 295 3.0 8.0 0.00 0.00 0.00 57 1012.6
20260508162803 73 296 3.0 8.0 0.00 0.00 0.00 56 1012.4
20260508162703 73 298 3.0 8.0 0.00 0.00 0.00 56 1012.4
20260508162604 73 297 3.0 8.0 0.00 0.00 0.00 56 1012.5
20260508162503 73 298 3.0 8.0 0.00 0.00 0.00 56 1012.5
20260508162403 74 298 2.0 8.0 0.00 0.00 0.00 56 1012.5
20260508162306 74 299 2.0 8.0 0.00 0.00 0.00 56 1012.6
20260508162203 74 303 2.0 8.0 0.00 0.00 0.00 56 1012.6
20260508162103 74 301 2.0 8.0 0.00 0.00 0.00 56 1012.5
20260508162003 74 303 3.0 11.0 0.00 0.00 0.00 56 1012.6
20260508161903 74 303 3.0 11.0 0.00 0.00 0.00 56 1012.6
20260508161803 74 303 3.0 11.0 0.00 0.00 0.00 56 1012.5
20260508161703 74 300 3.0 11.0 0.00 0.00 0.00 56 1012.5
20260508161604 74 301 2.0 11.0 0.00 0.00 0.00 56 1012.5
20260508161504 74 301 3.0 11.0 0.00 0.00 0.00 56 1012.5
20260508161403 74 300 3.0 11.0 0.00 0.00 0.00 56 1012.6
20260508161303 74 300 3.0 11.0 0.00 0.00 0.00 56 1012.6
20260508161203 74 298 3.0 11.0 0.00 0.00 0.00 56 1012.7
20260508161103 74 298 2.0 11.0 0.00 0.00 0.00 56 1012.6
20260508161003 74 293 2.0 8.0 0.00 0.00 0.00 56 1012.6
20260508160903 74 293 2.0 7.0 0.00 0.00 0.00 56 1012.6
20260508160803 74 294 2.0 7.0 0.00 0.00 0.00 56 1012.7
20260508160703 74 297 2.0 7.0 0.00 0.00 0.00 56 1012.6
20260508160603 74 296 2.0 11.0 0.00 0.00 0.00 56 1012.6
20260508160503 74 296 2.0 11.0 0.00 0.00 0.00 56 1012.5
20260508160403 73 298 2.0 11.0 0.00 0.00 0.00 55 1012.5
20260508160303 74 296 2.0 11.0 0.00 0.00 0.00 55 1012.7
20260508160203 74 296 3.0 11.0 0.00 0.00 0.00 55 1012.7
20260508160103 74 297 4.0 15.0 0.00 0.00 0.00 55 1012.6
20260508160003 74 298 4.0 15.0 0.00 0.00 0.00 55 1012.6
20260508155903 74 297 4.0 15.0 0.00 0.00 0.00 55 1012.6
20260508155803 74 296 4.0 15.0 0.00 0.00 0.00 55 1012.6
20260508155703 74 295 4.0 15.0 0.00 0.00 0.00 55 1012.6
20260508155603 74 295 4.0 15.0 0.00 0.00 0.00 55 1012.7
20260508155503 74 295 4.0 15.0 0.00 0.00 0.00 54 1012.6
20260508155403 74 294 4.0 15.0 0.00 0.00 0.00 54 1012.6
20260508155306 74 294 4.0 15.0 0.00 0.00 0.00 54 1012.7
20260508155203 74 294 4.0 15.0 0.00 0.00 0.00 54 1012.6
20260508155103 74 293 3.0 12.0 0.00 0.00 0.00 54 1012.5
20260508155003 74 292 3.0 10.0 0.00 0.00 0.00 54 1012.5
20260508154903 74 294 3.0 10.0 0.00 0.00 0.00 54 1012.5
20260508154803 74 295 3.0 10.0 0.00 0.00 0.00 54 1012.5
20260508154703 74 297 3.0 10.0 0.00 0.00 0.00 54 1012.5
20260508154603 74 297 3.0 10.0 0.00 0.00 0.00 54 1012.5
20260508154503 74 297 3.0 10.0 0.00 0.00 0.00 54 1012.5
20260508154403 74 297 3.0 10.0 0.00 0.00 0.00 54 1012.5
20260508154303 74 298 3.0 11.0 0.00 0.00 0.00 54 1012.5
20260508154203 74 297 3.0 11.0 0.00 0.00 0.00 54 1012.5
20260508154103 74 297 3.0 11.0 0.00 0.00 0.00 54 1012.6
20260508154003 74 298 3.0 11.0 0.00 0.00 0.00 54 1012.6
20260508153903 74 295 3.0 11.0 0.00 0.00 0.00 54 1012.6
20260508153803 74 294 3.0 11.0 0.00 0.00 0.00 54 1012.6
20260508153703 74 294 3.0 11.0 0.00 0.00 0.00 54 1012.5
20260508153603 74 294 3.0 11.0 0.00 0.00 0.00 54 1012.6
20260508153503 74 294 2.0 11.0 0.00 0.00 0.00 54 1012.6
20260508153403 74 295 2.0 11.0 0.00 0.00 0.00 54 1012.5
20260508153303 74 294 2.0 6.0 0.00 0.00 0.00 54 1012.5
20260508153203 74 294 1.0 6.0 0.00 0.00 0.00 54 1012.5
20260508153103 74 294 2.0 7.0 0.00 0.00 0.00 54 1012.5
20260508153003 74 299 2.0 7.0 0.00 0.00 0.00 54 1012.4
20260508152903 74 301 2.0 7.0 0.00 0.00 0.00 54 1012.5
20260508152803 74 301 2.0 7.0 0.00 0.00 0.00 54 1012.5
20260508152703 74 299 2.0 7.0 0.00 0.00 0.00 54 1012.4
20260508152603 74 299 2.0 7.0 0.00 0.00 0.00 54 1012.6
20260508152503 74 298 3.0 8.0 0.00 0.00 0.00 54 1012.6
20260508152403 74 297 3.0 8.0 0.00 0.00 0.00 54 1012.6
20260508152306 74 298 3.0 8.0 0.00 0.00 0.00 54 1012.7
20260508152203 74 297 3.0 11.0 0.00 0.00 0.00 54 1012.6
20260508152103 74 298 3.0 11.0 0.00 0.00 0.00 54 1012.4
20260508152003 74 295 3.0 11.0 0.00 0.00 0.00 54 1012.5
20260508151903 74 296 3.0 11.0 0.00 0.00 0.00 54 1012.4
20260508151803 74 296 3.0 11.0 0.00 0.00 0.00 53 1012.4
20260508151703 74 297 2.0 11.0 0.00 0.00 0.00 54 1012.5
20260508151603 74 296 2.0 11.0 0.00 0.00 0.00 54 1012.6
20260508151503 74 297 2.0 11.0 0.00 0.00 0.00 54 1012.5
20260508151403 74 299 2.0 11.0 0.00 0.00 0.00 54 1012.5
20260508151303 74 297 2.0 11.0 0.00 0.00 0.00 54 1012.5
20260508151203 74 299 2.0 7.0 0.00 0.00 0.00 54 1012.5
20260508151103 75 297 2.0 7.0 0.00 0.00 0.00 54 1012.5
20260508151003 74 298 2.0 7.0 0.00 0.00 0.00 54 1012.5
20260508150903 74 296 2.0 7.0 0.00 0.00 0.00 54 1012.5
20260508150803 75 296 2.0 7.0 0.00 0.00 0.00 54 1012.4
20260508150703 74 296 2.0 7.0 0.00 0.00 0.00 54 1012.4
20260508150603 74 296 2.0 7.0 0.00 0.00 0.00 54 1012.4
20260508150503 74 295 2.0 7.0 0.00 0.00 0.00 54 1012.5
20260508150403 75 295 2.0 7.0 0.00 0.00 0.00 54 1012.4
20260508150303 75 294 2.0 7.0 0.00 0.00 0.00 54 1012.4
20260508150203 75 294 2.0 8.0 0.00 0.00 0.00 53 1012.5
20260508150003 75 296 2.0 10.0 0.00 0.00 0.00 53 1012.4
20260508145903 75 294 2.0 10.0 0.00 0.00 0.00 53 1012.4
20260508145803 75 294 2.0 10.0 0.00 0.00 0.00 53 1012.3
20260508145703 75 294 2.0 10.0 0.00 0.00 0.00 53 1012.4
20260508145603 75 296 2.0 10.0 0.00 0.00 0.00 53 1012.3
20260508145503 75 299 3.0 10.0 0.00 0.00 0.00 53 1012.3
20260508145403 75 298 3.0 10.0 0.00 0.00 0.00 53 1012.2
20260508145306 75 299 3.0 10.0 0.00 0.00 0.00 53 1012.3
20260508145203 75 299 2.0 10.0 0.00 0.00 0.00 53 1012.3
20260508145104 75 300 2.0 9.0 0.00 0.00 0.00 53 1012.4
20260508145004 75 300 2.0 9.0 0.00 0.00 0.00 53 1012.3
20260508144904 75 301 2.0 9.0 0.00 0.00 0.00 53 1012.3
20260508144804 75 300 3.0 9.0 0.00 0.00 0.00 53 1012.4
20260508144704 75 300 3.0 9.0 0.00 0.00 0.00 53 1012.4
20260508144604 75 300 3.0 9.0 0.00 0.00 0.00 53 1012.4
20260508144504 75 298 3.0 9.0 0.00 0.00 0.00 53 1012.4
20260508144404 75 299 3.0 9.0 0.00 0.00 0.00 52 1012.4
20260508144304 75 300 3.0 9.0 0.00 0.00 0.00 52 1012.4
20260508144204 75 300 3.0 9.0 0.00 0.00 0.00 52 1012.4
20260508144104 75 299 3.0 9.0 0.00 0.00 0.00 52 1012.5
20260508144004 75 300 4.0 9.0 0.00 0.00 0.00 52 1012.5
20260508143904 74 300 3.0 9.0 0.00 0.00 0.00 52 1012.4
20260508143804 75 298 3.0 9.0 0.00 0.00 0.00 52 1012.4
20260508143704 75 299 3.0 9.0 0.00 0.00 0.00 52 1012.4
20260508143605 75 298 3.0 9.0 0.00 0.00 0.00 52 1012.5
20260508143504 75 299 3.0 9.0 0.00 0.00 0.00 52 1012.5
20260508143404 75 298 3.0 9.0 0.00 0.00 0.00 52 1012.5
20260508143304 75 297 2.0 9.0 0.00 0.00 0.00 52 1012.5
20260508143204 75 297 2.0 9.0 0.00 0.00 0.00 53 1012.5
20260508143104 74 299 2.0 9.0 0.00 0.00 0.00 53 1012.5
20260508143004 75 298 3.0 10.0 0.00 0.00 0.00 52 1012.6
20260508142904 75 298 3.0 10.0 0.00 0.00 0.00 53 1012.5
20260508142804 75 300 3.0 10.0 0.00 0.00 0.00 52 1012.5
20260508142704 75 298 3.0 10.0 0.00 0.00 0.00 52 1012.5
20260508142604 75 298 4.0 10.0 0.00 0.00 0.00 52 1012.5
20260508142504 75 298 4.0 10.0 0.00 0.00 0.00 52 1012.6
20260508142404 75 297 4.0 10.0 0.00 0.00 0.00 52 1012.5
20260508142306 75 297 4.0 10.0 0.00 0.00 0.00 52 1012.6
20260508142204 75 299 4.0 10.0 0.00 0.00 0.00 52 1012.7
20260508142104 75 298 4.0 10.0 0.00 0.00 0.00 52 1012.7
20260508142004 75 297 4.0 8.0 0.00 0.00 0.00 52 1012.6
20260508141904 75 298 3.0 8.0 0.00 0.00 0.00 52 1012.6
20260508141804 75 297 3.0 8.0 0.00 0.00 0.00 52 1012.7
20260508141704 75 297 3.0 8.0 0.00 0.00 0.00 52 1012.6
20260508141604 75 298 2.0 8.0 0.00 0.00 0.00 52 1012.7
20260508141504 75 300 2.0 8.0 0.00 0.00 0.00 52 1012.7
20260508141404 75 300 2.0 8.0 0.00 0.00 0.00 52 1012.7
20260508141304 75 301 2.0 7.0 0.00 0.00 0.00 52 1012.8
20260508141204 75 296 1.0 6.0 0.00 0.00 0.00 52 1012.7
20260508141103 75 295 1.0 5.0 0.00 0.00 0.00 52 1012.7
20260508141003 75 298 1.0 5.0 0.00 0.00 0.00 52 1012.7
20260508140904 75 296 1.0 5.0 0.00 0.00 0.00 52 1012.6
20260508140803 75 292 1.0 5.0 0.00 0.00 0.00 51 1012.6
20260508140704 75 293 1.0 4.0 0.00 0.00 0.00 51 1012.7
20260508140603 75 295 1.0 8.0 0.00 0.00 0.00 51 1012.8
20260508140504 76 296 1.0 8.0 0.00 0.00 0.00 51 1012.7
20260508140403 75 297 2.0 8.0 0.00 0.00 0.00 51 1012.7
20260508140303 75 299 2.0 8.0 0.00 0.00 0.00 51 1012.7
20260508140203 75 298 2.0 10.0 0.00 0.00 0.00 51 1012.7
20260508140103 75 298 2.0 10.0 0.00 0.00 0.00 51 1012.7
20260508140004 75 298 3.0 10.0 0.00 0.00 0.00 51 1012.7
20260508135903 75 299 3.0 10.0 0.00 0.00 0.00 51 1012.7
20260508135803 76 298 4.0 13.0 0.00 0.00 0.00 51 1012.6
20260508135703 76 298 4.0 13.0 0.00 0.00 0.00 50 1012.8
20260508135603 76 297 4.0 13.0 0.00 0.00 0.00 50 1012.9
20260508135503 76 298 4.0 13.0 0.00 0.00 0.00 50 1012.8
20260508135403 76 296 4.0 13.0 0.00 0.00 0.00 50 1012.8
20260508135306 76 296 5.0 13.0 0.00 0.00 0.00 50 1012.8
20260508135203 76 296 5.0 13.0 0.00 0.00 0.00 50 1012.8
20260508135103 76 296 5.0 13.0 0.00 0.00 0.00 50 1012.8
20260508135003 76 296 5.0 13.0 0.00 0.00 0.00 50 1012.8
20260508134903 76 295 5.0 13.0 0.00 0.00 0.00 50 1012.8
20260508134803 76 296 4.0 11.0 0.00 0.00 0.00 50 1012.8
20260508134703 76 297 4.0 11.0 0.00 0.00 0.00 50 1012.8
20260508134603 76 296 4.0 11.0 0.00 0.00 0.00 50 1012.8
20260508134503 76 296 4.0 11.0 0.00 0.00 0.00 50 1012.8
20260508134403 76 298 4.0 10.0 0.00 0.00 0.00 50 1012.6
20260508134303 76 295 4.0 10.0 0.00 0.00 0.00 50 1012.6
20260508134203 76 295 4.0 10.0 0.00 0.00 0.00 50 1012.7
20260508134103 76 295 4.0 10.0 0.00 0.00 0.00 50 1012.6
20260508134003 76 295 3.0 10.0 0.00 0.00 0.00 50 1012.7
20260508133903 76 296 3.0 10.0 0.00 0.00 0.00 50 1012.5
20260508133803 76 295 3.0 10.0 0.00 0.00 0.00 50 1012.6
20260508133703 76 294 3.0 10.0 0.00 0.00 0.00 50 1012.6
20260508133603 76 295 2.0 10.0 0.00 0.00 0.00 50 1012.6
20260508133503 76 295 2.0 10.0 0.00 0.00 0.00 50 1012.6
20260508133403 76 294 2.0 10.0 0.00 0.00 0.00 50 1012.6
20260508133303 76 296 2.0 10.0 0.00 0.00 0.00 50 1012.7
20260508133203 76 299 1.0 8.0 0.00 0.00 0.00 51 1012.8
20260508133103 76 298 2.0 8.0 0.00 0.00 0.00 51 1012.6
20260508133003 76 299 2.0 8.0 0.00 0.00 0.00 51 1012.6
20260508132903 76 304 2.0 8.0 0.00 0.00 0.00 51 1012.5
20260508132803 76 304 2.0 8.0 0.00 0.00 0.00 51 1012.5
20260508132703 76 298 2.0 8.0 0.00 0.00 0.00 51 1012.6
20260508132603 76 297 2.0 8.0 0.00 0.00 0.00 51 1012.6
20260508132503 76 296 2.0 8.0 0.00 0.00 0.00 50 1012.6
20260508132403 76 295 2.0 5.0 0.00 0.00 0.00 51 1012.5
20260508132306 76 290 1.0 5.0 0.00 0.00 0.00 51 1012.5
20260508132203 76 292 1.0 6.0 0.00 0.00 0.00 51 1012.5
20260508132103 76 293 1.0 6.0 0.00 0.00 0.00 51 1012.4
20260508132003 76 293 1.0 6.0 0.00 0.00 0.00 51 1012.5
20260508131903 75 290 1.0 6.0 0.00 0.00 0.00 52 1012.5
20260508131803 75 289 1.0 6.0 0.00 0.00 0.00 51 1012.5
20260508131703 75 294 1.0 6.0 0.00 0.00 0.00 52 1012.5
20260508131603 75 294 1.0 6.0 0.00 0.00 0.00 52 1012.4
20260508131503 75 293 1.0 6.0 0.00 0.00 0.00 52 1012.5
20260508131404 75 292 1.0 6.0 0.00 0.00 0.00 53 1012.6
20260508131303 75 294 2.0 12.0 0.00 0.00 0.00 53 1012.5
20260508131203 75 293 2.0 12.0 0.00 0.00 0.00 53 1012.6
20260508131103 75 293 2.0 12.0 0.00 0.00 0.00 53 1012.5
20260508131003 75 295 2.0 12.0 0.00 0.00 0.00 52 1012.6
20260508130903 75 297 3.0 12.0 0.00 0.00 0.00 52 1012.5
20260508130803 75 296 3.0 12.0 0.00 0.00 0.00 52 1012.6
20260508130703 75 296 4.0 12.0 0.00 0.00 0.00 52 1012.5
20260508130603 75 296 4.0 12.0 0.00 0.00 0.00 51 1012.4
20260508130503 75 295 4.0 12.0 0.00 0.00 0.00 52 1012.4
20260508130403 75 294 4.0 12.0 0.00 0.00 0.00 52 1012.4
20260508130303 75 295 4.0 11.0 0.00 0.00 0.00 52 1012.4
20260508130203 75 296 4.0 11.0 0.00 0.00 0.00 52 1012.4
20260508130103 75 296 4.0 11.0 0.00 0.00 0.00 52 1012.5
20260508130003 75 295 4.0 11.0 0.00 0.00 0.00 52 1012.5
20260508125903 75 294 4.0 11.0 0.00 0.00 0.00 53 1012.4
20260508125803 75 295 4.0 9.0 0.00 0.00 0.00 53 1012.4
20260508125703 75 294 3.0 9.0 0.00 0.00 0.00 53 1012.4
20260508125603 75 295 3.0 9.0 0.00 0.00 0.00 53 1012.5
20260508125503 75 297 3.0 9.0 0.00 0.00 0.00 53 1012.4
20260508125403 75 298 3.0 9.0 0.00 0.00 0.00 53 1012.5
20260508125306 75 296 3.0 7.0 0.00 0.00 0.00 52 1012.5
20260508125203 75 296 3.0 7.0 0.00 0.00 0.00 53 1012.5
20260508125103 75 295 3.0 7.0 0.00 0.00 0.00 53 1012.4
20260508125003 75 295 3.0 7.0 0.00 0.00 0.00 53 1012.4
20260508124903 75 295 3.0 7.0 0.00 0.00 0.00 53 1012.5
20260508124803 75 294 3.0 6.0 0.00 0.00 0.00 53 1012.4
20260508124703 75 292 3.0 6.0 0.00 0.00 0.00 53 1012.4
20260508124603 75 292 3.0 6.0 0.00 0.00 0.00 54 1012.4
20260508124503 75 291 3.0 6.0 0.00 0.00 0.00 54 1012.4
20260508124403 75 289 3.0 6.0 0.00 0.00 0.00 55 1012.4
20260508124303 75 288 3.0 6.0 0.00 0.00 0.00 55 1012.5
20260508124204 75 287 2.0 6.0 0.00 0.00 0.00 55 1012.5
20260508124104 75 287 2.0 6.0 0.00 0.00 0.00 55 1012.5
20260508124004 75 285 3.0 6.0 0.00 0.00 0.00 55 1012.6
20260508123904 74 287 3.0 7.0 0.00 0.00 0.00 55 1012.5
20260508123804 74 285 3.0 7.0 0.00 0.00 0.00 55 1012.5
20260508123704 74 284 3.0 7.0 0.00 0.00 0.00 55 1012.5
20260508123604 74 286 3.0 7.0 0.00 0.00 0.00 55 1012.4
20260508123504 74 285 3.0 7.0 0.00 0.00 0.00 55 1012.4
20260508123404 74 285 3.0 7.0 0.00 0.00 0.00 55 1012.4
20260508123304 74 287 2.0 7.0 0.00 0.00 0.00 55 1012.4
20260508123204 74 288 3.0 9.0 0.00 0.00 0.00 55 1012.4
20260508123104 74 288 3.0 9.0 0.00 0.00 0.00 55 1012.5
20260508123004 74 291 3.0 9.0 0.00 0.00 0.00 55 1012.5
20260508122904 74 290 3.0 9.0 0.00 0.00 0.00 55 1012.4
20260508122804 74 292 2.0 9.0 0.00 0.00 0.00 55 1012.4
20260508122704 74 294 2.0 9.0 0.00 0.00 0.00 55 1012.4
20260508122604 74 292 2.0 9.0 0.00 0.00 0.00 55 1012.4
20260508122504 74 290 2.0 9.0 0.00 0.00 0.00 55 1012.4
20260508122404 75 289 2.0 9.0 0.00 0.00 0.00 55 1012.4
20260508122306 75 288 2.0 9.0 0.00 0.00 0.00 55 1012.3
20260508122204 75 287 2.0 8.0 0.00 0.00 0.00 54 1012.2
20260508122104 75 287 2.0 8.0 0.00 0.00 0.00 54 1012.3
20260508122004 75 283 2.0 8.0 0.00 0.00 0.00 54 1012.3
20260508121904 75 278 1.0 7.0 0.00 0.00 0.00 54 1012.4
20260508121804 75 275 1.0 7.0 0.00 0.00 0.00 54 1012.4
20260508121704 75 274 1.0 7.0 0.00 0.00 0.00 54 1012.4
20260508121604 75 282 2.0 7.0 0.00 0.00 0.00 54 1012.4
20260508121504 75 285 2.0 7.0 0.00 0.00 0.00 54 1012.3
20260508121404 75 288 2.0 7.0 0.00 0.00 0.00 53 1012.3
20260508121304 75 289 2.0 7.0 0.00 0.00 0.00 53 1012.2
20260508121204 75 291 2.0 7.0 0.00 0.00 0.00 53 1012.4
20260508121104 75 294 2.0 7.0 0.00 0.00 0.00 53 1012.4
20260508121004 75 295 2.0 6.0 0.00 0.00 0.00 53 1012.3
20260508120904 75 296 2.0 7.0 0.00 0.00 0.00 53 1012.3
20260508120804 75 294 2.0 8.0 0.00 0.00 0.00 53 1012.4
20260508120704 75 296 3.0 8.0 0.00 0.00 0.00 53 1012.4
20260508120604 75 295 2.0 8.0 0.00 0.00 0.00 53 1012.4
20260508120504 75 295 2.0 8.0 0.00 0.00 0.00 53 1012.4
20260508120404 75 294 3.0 8.0 0.00 0.00 0.00 53 1012.3
20260508120304 75 296 3.0 8.0 0.00 0.00 0.00 53 1012.3
20260508120204 75 296 4.0 8.0 0.00 0.00 0.00 53 1012.3
20260508120104 75 295 4.0 9.0 0.00 0.00 0.00 53 1012.4
20260508120004 75 296 4.0 9.0 0.00 0.00 0.00 52 1012.4
20260508115903 75 295 4.0 9.0 0.00 0.00 0.00 52 1012.4
20260508115803 75 296 4.0 9.0 0.00 0.00 0.00 52 1012.3
20260508115703 75 296 4.0 9.0 0.00 0.00 0.00 52 1012.4
20260508115603 75 297 4.0 9.0 0.00 0.00 0.00 52 1012.3
20260508115503 75 296 5.0 9.0 0.00 0.00 0.00 52 1012.4
20260508115403 75 296 5.0 9.0 0.00 0.00 0.00 52 1012.3
20260508115306 75 295 4.0 9.0 0.00 0.00 0.00 52 1012.3
20260508115203 75 294 4.0 9.0 0.00 0.00 0.00 52 1012.3
20260508115103 75 294 4.0 9.0 0.00 0.00 0.00 52 1012.2
20260508115003 76 293 3.0 8.0 0.00 0.00 0.00 52 1012.2
20260508114903 76 297 3.0 8.0 0.00 0.00 0.00 52 1012.1
20260508114803 76 297 3.0 8.0 0.00 0.00 0.00 52 1012.3
20260508114703 76 297 3.0 7.0 0.00 0.00 0.00 52 1012.3
20260508114603 76 295 3.0 7.0 0.00 0.00 0.00 53 1012.3
20260508114503 76 295 3.0 7.0 0.00 0.00 0.00 53 1012.3
20260508114403 76 295 3.0 9.0 0.00 0.00 0.00 53 1012.3
20260508114303 76 296 3.0 9.0 0.00 0.00 0.00 53 1012.4
20260508114203 76 296 3.0 9.0 0.00 0.00 0.00 54 1012.3
20260508114103 76 297 3.0 9.0 0.00 0.00 0.00 54 1012.3
20260508114003 76 298 3.0 9.0 0.00 0.00 0.00 54 1012.3
20260508113903 76 295 3.0 9.0 0.00 0.00 0.00 54 1012.3
20260508113803 76 294 2.0 9.0 0.00 0.00 0.00 54 1012.3
20260508113703 76 294 2.0 9.0 0.00 0.00 0.00 54 1012.2
20260508113603 76 295 2.0 9.0 0.00 0.00 0.00 54 1012.3
20260508113503 76 297 1.0 9.0 0.00 0.00 0.00 54 1012.3
20260508113403 76 306 1.0 4.0 0.00 0.00 0.00 55 1012.4
20260508113303 76 318 1.0 4.0 0.00 0.00 0.00 55 1012.3
20260508113203 76 97 0.0 4.0 0.00 0.00 0.00 55 1012.2
20260508113103 76 55 1.0 4.0 0.00 0.00 0.00 55 1012.2
20260508113004 76 309 1.0 4.0 0.00 0.00 0.00 55 1012.3
20260508112903 76 298 1.0 4.0 0.00 0.00 0.00 54 1012.3
20260508112803 76 295 1.0 4.0 0.00 0.00 0.00 55 1012.4
20260508112703 76 300 1.0 6.0 0.00 0.00 0.00 54 1012.4
20260508112603 75 299 2.0 7.0 0.00 0.00 0.00 54 1012.3
20260508112503 75 299 2.0 7.0 0.00 0.00 0.00 54 1012.4
20260508112403 75 297 3.0 9.0 0.00 0.00 0.00 54 1012.3
20260508112306 75 298 3.0 9.0 0.00 0.00 0.00 54 1012.4
20260508112203 75 298 3.0 9.0 0.00 0.00 0.00 53 1012.3
20260508112104 75 297 3.0 9.0 0.00 0.00 0.00 53 1012.3
20260508112003 75 297 3.0 9.0 0.00 0.00 0.00 53 1012.3
20260508111903 75 297 3.0 9.0 0.00 0.00 0.00 53 1012.3
20260508111803 76 297 3.0 9.0 0.00 0.00 0.00 53 1012.3
20260508111703 76 296 3.0 9.0 0.00 0.00 0.00 53 1012.4
20260508111603 76 296 3.0 9.0 0.00 0.00 0.00 53 1012.3
20260508111503 76 293 3.0 9.0 0.00 0.00 0.00 53 1012.3
20260508111403 76 294 3.0 8.0 0.00 0.00 0.00 53 1012.3
20260508111303 76 293 3.0 8.0 0.00 0.00 0.00 54 1012.3
20260508111203 76 293 3.0 8.0 0.00 0.00 0.00 54 1012.3
20260508111103 76 293 3.0 8.0 0.00 0.00 0.00 54 1012.2
20260508111003 76 293 3.0 8.0 0.00 0.00 0.00 54 1012.3
20260508110903 76 293 3.0 8.0 0.00 0.00 0.00 54 1012.3
20260508110803 76 293 3.0 8.0 0.00 0.00 0.00 54 1012.3
20260508110703 76 297 3.0 8.0 0.00 0.00 0.00 54 1012.2
20260508110603 75 298 3.0 8.0 0.00 0.00 0.00 54 1012.2
20260508110503 76 299 3.0 8.0 0.00 0.00 0.00 54 1012.3
20260508110403 76 299 3.0 8.0 0.00 0.00 0.00 54 1012.1
20260508110303 76 300 3.0 8.0 0.00 0.00 0.00 54 1012.2
20260508110203 76 299 3.0 8.0 0.00 0.00 0.00 54 1012.2
20260508110103 76 299 3.0 8.0 0.00 0.00 0.00 54 1012.2
20260508110003 76 299 3.0 8.0 0.00 0.00 0.00 53 1012.0
20260508105903 76 301 3.0 8.0 0.00 0.00 0.00 54 1012.0
20260508105803 76 301 2.0 8.0 0.00 0.00 0.00 54 1012.0
20260508105703 76 296 2.0 7.0 0.00 0.00 0.00 55 1012.0
20260508105603 76 293 2.0 7.0 0.00 0.00 0.00 55 1012.0
20260508105503 76 294 1.0 7.0 0.00 0.00 0.00 55 1011.9
20260508105403 76 294 2.0 7.0 0.00 0.00 0.00 55 1011.8
20260508105306 76 295 2.0 7.0 0.00 0.00 0.00 55 1012.0
20260508105203 76 296 2.0 7.0 0.00 0.00 0.00 55 1012.0
20260508105103 76 296 2.0 7.0 0.00 0.00 0.00 55 1012.0
20260508105003 76 296 2.0 7.0 0.00 0.00 0.00 55 1012.1
20260508104903 76 297 2.0 7.0 0.00 0.00 0.00 55 1012.2
20260508104803 76 297 2.0 7.0 0.00 0.00 0.00 55 1012.1
20260508104703 76 297 2.0 6.0 0.00 0.00 0.00 56 1012.1
20260508104603 76 297 2.0 6.0 0.00 0.00 0.00 56 1012.1
20260508104503 76 296 2.0 6.0 0.00 0.00 0.00 56 1012.0
20260508104403 76 297 2.0 6.0 0.00 0.00 0.00 56 1012.0
20260508104303 76 296 2.0 6.0 0.00 0.00 0.00 56 1012.0
20260508104203 76 298 2.0 6.0 0.00 0.00 0.00 56 1012.0
20260508104103 76 299 2.0 6.0 0.00 0.00 0.00 56 1012.0
20260508104003 76 300 2.0 6.0 0.00 0.00 0.00 55 1012.0
20260508103903 76 301 2.0 5.0 0.00 0.00 0.00 55 1011.9
20260508103803 76 303 2.0 5.0 0.00 0.00 0.00 56 1012.0
20260508103703 76 302 2.0 6.0 0.00 0.00 0.00 55 1012.0
20260508103603 76 302 2.0 6.0 0.00 0.00 0.00 55 1012.0
20260508103503 76 304 2.0 6.0 0.00 0.00 0.00 55 1012.0
20260508103403 76 304 2.0 6.0 0.00 0.00 0.00 55 1012.0
20260508103303 76 305 1.0 6.0 0.00 0.00 0.00 56 1012.1
20260508103203 76 302 1.0 6.0 0.00 0.00 0.00 56 1012.0
20260508103103 75 301 1.0 6.0 0.00 0.00 0.00 56 1012.0
20260508103003 75 299 1.0 6.0 0.00 0.00 0.00 56 1012.0
20260508102903 75 296 2.0 9.0 0.00 0.00 0.00 56 1012.0
20260508102804 75 295 2.0 9.0 0.00 0.00 0.00 56 1012.1
20260508102704 75 296 2.0 9.0 0.00 0.00 0.00 56 1012.0
20260508102604 75 296 2.0 9.0 0.00 0.00 0.00 56 1012.0
20260508102504 75 296 2.0 9.0 0.00 0.00 0.00 56 1012.1
20260508102404 75 296 2.0 9.0 0.00 0.00 0.00 56 1012.1
20260508102306 75 296 2.0 9.0 0.00 0.00 0.00 56 1012.2
20260508102204 75 297 2.0 9.0 0.00 0.00 0.00 56 1012.0
20260508102104 75 298 2.0 9.0 0.00 0.00 0.00 56 1012.0
20260508102004 75 297 2.0 9.0 0.00 0.00 0.00 56 1012.0
20260508101904 75 301 2.0 7.0 0.00 0.00 0.00 56 1012.1
20260508101804 75 303 2.0 8.0 0.00 0.00 0.00 57 1012.0
20260508101704 75 303 2.0 8.0 0.00 0.00 0.00 57 1012.1
20260508101604 75 302 2.0 8.0 0.00 0.00 0.00 57 1012.1
20260508101504 75 302 2.0 8.0 0.00 0.00 0.00 57 1012.1
20260508101404 75 303 2.0 8.0 0.00 0.00 0.00 57 1012.1
20260508101304 75 303 2.0 8.0 0.00 0.00 0.00 57 1012.2
20260508101204 75 303 2.0 8.0 0.00 0.00 0.00 57 1012.2
20260508101104 75 303 2.0 8.0 0.00 0.00 0.00 57 1012.3
20260508101004 75 308 2.0 8.0 0.00 0.00 0.00 57 1012.2
20260508100904 75 316 2.0 8.0 0.00 0.00 0.00 57 1012.1
20260508100804 75 10 1.0 6.0 0.00 0.00 0.00 56 1012.2
20260508100704 75 110 1.0 6.0 0.00 0.00 0.00 57 1012.0
20260508100604 75 108 1.0 6.0 0.00 0.00 0.00 57 1012.0
20260508100504 75 108 1.0 6.0 0.00 0.00 0.00 57 1012.1
20260508100404 74 114 1.0 6.0 0.00 0.00 0.00 57 1012.1
20260508100304 74 113 1.0 6.0 0.00 0.00 0.00 57 1012.1
20260508100204 74 113 1.0 6.0 0.00 0.00 0.00 58 1012.2
20260508100104 74 110 1.0 6.0 0.00 0.00 0.00 58 1012.1
20260508100004 74 114 0.0 3.0 0.00 0.00 0.00 58 1012.1
20260508095904 74 117 0.0 3.0 0.00 0.00 0.00 58 1012.2
20260508095804 74 117 0.0 3.0 0.00 0.00 0.00 58 1012.1
20260508095704 74 102 0.0 3.0 0.00 0.00 0.00 58 1012.2
20260508095604 74 90 0.0 3.0 0.00 0.00 0.00 58 1012.1
20260508095504 74 90 0.0 3.0 0.00 0.00 0.00 59 1012.1
20260508095404 74 87 0.0 2.0 0.00 0.00 0.00 59 1012.2
20260508095306 74 90 0.0 2.0 0.00 0.00 0.00 59 1012.1
20260508095204 74 87 0.0 5.0 0.00 0.00 0.00 59 1012.1
20260508095104 74 85 0.0 5.0 0.00 0.00 0.00 60 1012.1
20260508095004 74 356 0.0 5.0 0.00 0.00 0.00 60 1012.1
20260508094904 74 356 0.0 5.0 0.00 0.00 0.00 60 1012.1
20260508094804 73 5 0.0 5.0 0.00 0.00 0.00 60 1012.1
20260508094704 73 73 1.0 6.0 0.00 0.00 0.00 60 1012.0
20260508094604 73 76 1.0 6.0 0.00 0.00 0.00 60 1012.0
20260508094504 73 115 1.0 6.0 0.00 0.00 0.00 61 1012.0
20260508094404 73 120 1.0 6.0 0.00 0.00 0.00 61 1012.0
20260508094304 73 113 1.0 6.0 0.00 0.00 0.00 61 1012.0
20260508094203 73 128 1.0 6.0 0.00 0.00 0.00 61 1012.0
20260508094103 73 126 1.0 6.0 0.00 0.00 0.00 61 1012.0
20260508094004 73 122 1.0 6.0 0.00 0.00 0.00 61 1011.9
20260508093903 73 123 1.0 6.0 0.00 0.00 0.00 61 1011.9
20260508093803 73 121 1.0 6.0 0.00 0.00 0.00 61 1011.9
20260508093703 73 128 1.0 6.0 0.00 0.00 0.00 61 1011.8
20260508093603 74 128 1.0 6.0 0.00 0.00 0.00 61 1011.8
20260508093503 74 127 1.0 6.0 0.00 0.00 0.00 61 1011.8
20260508093403 74 127 1.0 6.0 0.00 0.00 0.00 61 1011.8
20260508093303 74 132 0.0 4.0 0.00 0.00 0.00 61 1011.8
20260508093203 74 122 0.0 4.0 0.00 0.00 0.00 61 1011.9
20260508093103 74 110 0.0 4.0 0.00 0.00 0.00 62 1011.8
20260508093003 74 109 1.0 4.0 0.00 0.00 0.00 62 1011.8
20260508092903 74 106 1.0 4.0 0.00 0.00 0.00 61 1011.8
20260508092803 74 114 1.0 4.0 0.00 0.00 0.00 62 1011.8
20260508092703 74 113 1.0 4.0 0.00 0.00 0.00 62 1011.7
20260508092603 74 113 1.0 4.0 0.00 0.00 0.00 62 1011.8
20260508092503 74 108 0.0 4.0 0.00 0.00 0.00 62 1011.7
20260508092403 74 108 0.0 4.0 0.00 0.00 0.00 62 1011.8
20260508092312 74 108 0.0 4.0 0.00 0.00 0.00 62 1011.8
20260508092203 74 108 0.0 4.0 0.00 0.00 0.00 61 1011.8
20260508092103 74 117 0.0 4.0 0.00 0.00 0.00 61 1011.8
20260508092003 74 181 0.0 2.0 0.00 0.00 0.00 61 1011.8
20260508091903 74 203 0.0 2.0 0.00 0.00 0.00 61 1011.7
20260508091803 74 235 0.0 2.0 0.00 0.00 0.00 61 1011.7
20260508091703 74 263 0.0 2.0 0.00 0.00 0.00 61 1011.8
20260508091603 74 299 0.0 2.0 0.00 0.00 0.00 61 1011.7
20260508091503 74 299 0.0 2.0 0.00 0.00 0.00 61 1011.8
20260508091403 74 45 0.0 3.0 0.00 0.00 0.00 61 1011.9
20260508091303 74 45 0.0 3.0 0.00 0.00 0.00 61 1011.8
20260508091203 74 102 0.0 3.0 0.00 0.00 0.00 61 1011.8
20260508091103 74 99 0.0 3.0 0.00 0.00 0.00 61 1011.8
20260508091003 74 104 1.0 5.0 0.00 0.00 0.00 60 1011.8
20260508090903 74 104 1.0 5.0 0.00 0.00 0.00 60 1011.9
20260508090803 74 106 1.0 5.0 0.00 0.00 0.00 60 1011.9
20260508090703 74 109 1.0 5.0 0.00 0.00 0.00 60 1011.7
20260508090603 74 110 1.0 5.0 0.00 0.00 0.00 60 1011.7
20260508090503 74 110 1.0 5.0 0.00 0.00 0.00 60 1011.7
20260508090403 74 112 1.0 5.0 0.00 0.00 0.00 60 1011.8
20260508090303 74 112 1.0 5.0 0.00 0.00 0.00 60 1011.7
20260508090203 74 115 0.0 5.0 0.00 0.00 0.00 60 1011.9
20260508090103 74 122 0.0 5.0 0.00 0.00 0.00 60 1011.9
20260508090003 74 118 0.0 3.0 0.00 0.00 0.00 61 1011.8
20260508085903 74 116 0.0 3.0 0.00 0.00 0.00 61 1011.9
20260508085803 74 105 0.0 3.0 0.00 0.00 0.00 61 1011.9
20260508085703 74 105 0.0 3.0 0.00 0.00 0.00 61 1011.8
20260508085603 74 64 0.0 3.0 0.00 0.00 0.00 61 1011.8
20260508085503 74 283 1.0 4.0 0.00 0.00 0.00 61 1011.9
20260508085403 74 279 1.0 4.0 0.00 0.00 0.00 62 1011.9
20260508085306 74 281 1.0 4.0 0.00 0.00 0.00 62 1011.9
20260508085203 74 154 1.0 4.0 0.00 0.00 0.00 62 1011.9
20260508085103 74 118 1.0 4.0 0.00 0.00 0.00 62 1011.8
20260508085003 74 123 1.0 4.0 0.00 0.00 0.00 62 1011.9
20260508084903 74 132 1.0 4.0 0.00 0.00 0.00 62 1011.9
20260508084803 74 140 1.0 4.0 0.00 0.00 0.00 62 1011.8
20260508084703 74 140 1.0 4.0 0.00 0.00 0.00 62 1011.8
20260508084603 74 125 1.0 4.0 0.00 0.00 0.00 62 1011.8
20260508084503 74 113 0.0 3.0 0.00 0.00 0.00 62 1011.9
20260508084403 74 112 1.0 3.0 0.00 0.00 0.00 62 1011.9
20260508084303 74 112 0.0 3.0 0.00 0.00 0.00 62 1011.8
20260508084203 75 113 0.0 3.0 0.00 0.00 0.00 62 1011.9
20260508084103 75 115 0.0 3.0 0.00 0.00 0.00 62 1011.9
20260508084003 75 290 0.0 3.0 0.00 0.00 0.00 62 1011.8
20260508083903 75 291 1.0 4.0 0.00 0.00 0.00 62 1011.8
20260508083803 75 290 1.0 4.0 0.00 0.00 0.00 62 1011.8
20260508083703 75 290 1.0 4.0 0.00 0.00 0.00 62 1011.8
20260508083603 75 290 1.0 4.0 0.00 0.00 0.00 62 1011.8
20260508083503 75 290 1.0 4.0 0.00 0.00 0.00 62 1011.9
20260508083403 75 290 1.0 4.0 0.00 0.00 0.00 62 1011.8
20260508083303 75 290 1.0 4.0 0.00 0.00 0.00 62 1011.9
20260508083203 75 290 1.0 4.0 0.00 0.00 0.00 62 1011.9
20260508083103 75 289 1.0 4.0 0.00 0.00 0.00 62 1011.8
20260508083003 75 288 1.0 4.0 0.00 0.00 0.00 62 1011.8
20260508082903 75 284 0.0 3.0 0.00 0.00 0.00 62 1011.8
20260508082803 75 130 0.0 2.0 0.00 0.00 0.00 62 1011.8
20260508082703 75 126 0.0 2.0 0.00 0.00 0.00 61 1011.9
20260508082603 75 123 0.0 2.0 0.00 0.00 0.00 61 1011.9
20260508082503 76 121 0.0 2.0 0.00 0.00 0.00 61 1011.8
20260508082403 76 121 0.0 2.0 0.00 0.00 0.00 61 1011.9
20260508082306 76 115 0.0 2.0 0.00 0.00 0.00 61 1011.8
20260508082203 76 111 0.0 2.0 0.00 0.00 0.00 61 1011.9
20260508082103 76 108 0.0 2.0 0.00 0.00 0.00 62 1011.8
20260508082003 76 112 0.0 2.0 0.00 0.00 0.00 62 1011.9
20260508081903 76 112 0.0 2.0 0.00 0.00 0.00 62 1011.8
20260508081803 76 96 0.0 2.0 0.00 0.00 0.00 62 1011.8
20260508081703 76 96 0.0 2.0 0.00 0.00 0.00 63 1011.8
20260508081603 76 67 0.0 1.0 0.00 0.00 0.00 63 1011.8
20260508081503 76 67 0.0 1.0 0.00 0.00 0.00 63 1011.7
20260508081403 76 67 0.0 1.0 0.00 0.00 0.00 63 1011.7
20260508081303 76 103 0.0 3.0 0.00 0.00 0.00 64 1011.8
20260508081203 76 103 0.0 3.0 0.00 0.00 0.00 64 1011.8
20260508081103 75 103 0.0 3.0 0.00 0.00 0.00 64 1011.8
20260508081003 75 103 0.0 3.0 0.00 0.00 0.00 64 1011.7
20260508080903 75 103 0.0 3.0 0.00 0.00 0.00 64 1011.7
20260508080803 75 103 0.0 3.0 0.00 0.00 0.00 64 1011.7
20260508080703 75 103 0.0 3.0 0.00 0.00 0.00 64 1011.7
20260508080604 75 99 0.0 3.0 0.00 0.00 0.00 64 1011.7
20260508080504 75 99 0.0 3.0 0.00 0.00 0.00 64 1011.7
20260508080404 75 99 0.0 3.0 0.00 0.00 0.00 64 1011.6
20260508080304 75 67 0.0 1.0 0.00 0.00 0.00 65 1011.7
20260508080204 75 84 0.0 1.0 0.00 0.00 0.00 65 1011.7
20260508080104 75 84 0.0 1.0 0.00 0.00 0.00 65 1011.7
20260508080004 75 84 0.0 1.0 0.00 0.00 0.00 65 1011.7
20260508075904 75 84 0.0 1.0 0.00 0.00 0.00 65 1011.7
20260508075804 75 84 0.0 1.0 0.00 0.00 0.00 65 1011.7
20260508075704 75 84 0.0 1.0 0.00 0.00 0.00 66 1011.7
20260508075604 75 112 0.0 2.0 0.00 0.00 0.00 66 1011.7
20260508075504 75 112 0.0 2.0 0.00 0.00 0.00 66 1011.7
20260508075404 74 112 0.0 2.0 0.00 0.00 0.00 66 1011.7
20260508075308 74 99 0.0 4.0 0.00 0.00 0.00 66 1011.7
20260508075204 74 99 0.0 4.0 0.00 0.00 0.00 67 1011.8
20260508075104 74 98 0.0 4.0 0.00 0.00 0.00 67 1011.7
20260508075004 74 98 0.0 4.0 0.00 0.00 0.00 67 1011.6
20260508074904 74 98 0.0 4.0 0.00 0.00 0.00 68 1011.7
20260508074804 73 98 0.0 4.0 0.00 0.00 0.00 68 1011.7
20260508074704 73 98 1.0 4.0 0.00 0.00 0.00 68 1011.8
20260508074604 73 98 1.0 4.0 0.00 0.00 0.00 68 1011.7
20260508074504 73 100 1.0 4.0 0.00 0.00 0.00 68 1011.8
20260508074404 73 101 1.0 4.0 0.00 0.00 0.00 69 1011.8
20260508074304 73 103 1.0 4.0 0.00 0.00 0.00 69 1011.8
20260508074204 73 103 1.0 4.0 0.00 0.00 0.00 69 1011.8
20260508074104 72 105 0.0 4.0 0.00 0.00 0.00 69 1011.7
20260508074004 72 105 0.0 4.0 0.00 0.00 0.00 69 1011.7
20260508073904 72 106 1.0 4.0 0.00 0.00 0.00 69 1011.8
20260508073804 72 106 1.0 4.0 0.00 0.00 0.00 70 1011.8
20260508073704 72 108 0.0 3.0 0.00 0.00 0.00 70 1011.7
20260508073604 71 109 0.0 3.0 0.00 0.00 0.00 70 1011.7
20260508073504 71 111 0.0 4.0 0.00 0.00 0.00 70 1011.7
20260508073404 71 112 0.0 4.0 0.00 0.00 0.00 70 1011.6
20260508073304 71 113 0.0 4.0 0.00 0.00 0.00 70 1011.8
20260508073204 71 109 1.0 4.0 0.00 0.00 0.00 70 1011.7
20260508073104 71 108 1.0 4.0 0.00 0.00 0.00 70 1011.7
20260508073004 71 109 1.0 4.0 0.00 0.00 0.00 70 1011.7
20260508072904 71 109 1.0 4.0 0.00 0.00 0.00 70 1011.7
20260508072804 71 109 1.0 4.0 0.00 0.00 0.00 70 1011.7
20260508072704 71 110 2.0 6.0 0.00 0.00 0.00 70 1011.8
20260508072604 71 108 2.0 6.0 0.00 0.00 0.00 70 1011.7
20260508072504 71 108 2.0 6.0 0.00 0.00 0.00 70 1011.7
20260508072403 71 108 2.0 6.0 0.00 0.00 0.00 70 1011.7
20260508072307 71 108 3.0 6.0 0.00 0.00 0.00 70 1011.8
20260508072204 71 108 3.0 6.0 0.00 0.00 0.00 70 1011.9
20260508072103 71 108 3.0 6.0 0.00 0.00 0.00 70 1011.7
20260508072004 71 108 2.0 6.0 0.00 0.00 0.00 70 1011.7
20260508071903 71 107 2.0 6.0 0.00 0.00 0.00 70 1011.6
20260508071803 71 108 2.0 6.0 0.00 0.00 0.00 70 1011.9
20260508071703 71 108 2.0 6.0 0.00 0.00 0.00 69 1011.8
20260508071603 71 109 2.0 6.0 0.00 0.00 0.00 69 1011.7
20260508071503 71 110 2.0 6.0 0.00 0.00 0.00 69 1011.7
20260508071403 71 110 1.0 6.0 0.00 0.00 0.00 69 1011.7
20260508071303 71 112 1.0 5.0 0.00 0.00 0.00 69 1011.6
20260508071203 71 113 1.0 5.0 0.00 0.00 0.00 69 1011.7
20260508071103 71 117 1.0 5.0 0.00 0.00 0.00 69 1011.7
20260508071003 71 117 1.0 5.0 0.00 0.00 0.00 69 1011.8
20260508070903 71 117 1.0 5.0 0.00 0.00 0.00 69 1011.8
20260508070803 71 117 1.0 5.0 0.00 0.00 0.00 69 1011.8
20260508070703 71 117 0.0 4.0 0.00 0.00 0.00 69 1011.8
20260508070603 72 120 0.0 3.0 0.00 0.00 0.00 69 1011.8
20260508070503 71 112 0.0 2.0 0.00 0.00 0.00 70 1011.8
20260508070403 71 112 0.0 3.0 0.00 0.00 0.00 70 1011.8
20260508070303 71 112 0.0 3.0 0.00 0.00 0.00 70 1011.8
20260508070203 71 112 0.0 3.0 0.00 0.00 0.00 69 1011.8
20260508070004 71 112 0.0 3.0 0.00 0.00 0.00 69 1011.8
20260508065903 71 112 0.0 3.0 0.00 0.00 0.00 69 1011.9
20260508065803 71 112 0.0 3.0 0.00 0.00 0.00 69 1011.8
20260508065703 71 112 0.0 3.0 0.00 0.00 0.00 69 1011.8
20260508065603 72 112 0.0 3.0 0.00 0.00 0.00 69 1011.8
20260508065503 72 112 0.0 3.0 0.00 0.00 0.00 69 1011.8
20260508065403 72 112 0.0 3.0 0.00 0.00 0.00 69 1011.8
20260508065306 72 112 0.0 3.0 0.00 0.00 0.00 69 1011.8
20260508065203 72 112 0.0 2.0 0.00 0.00 0.00 69 1011.8
20260508065103 72 112 0.0 2.0 0.00 0.00 0.00 69 1011.9
20260508065003 72 112 0.0 2.0 0.00 0.00 0.00 68 1011.7
20260508064903 72 112 0.0 2.0 0.00 0.00 0.00 68 1011.7
20260508064803 72 112 0.0 2.0 0.00 0.00 0.00 69 1011.7
20260508064703 72 112 0.0 2.0 0.00 0.00 0.00 68 1011.7
20260508064603 72 109 0.0 4.0 0.00 0.00 0.00 69 1011.7
20260508064503 72 111 1.0 4.0 0.00 0.00 0.00 68 1011.7
20260508064403 72 110 0.0 4.0 0.00 0.00 0.00 68 1011.7
20260508064303 72 111 1.0 4.0 0.00 0.00 0.00 68 1011.7
20260508064203 72 110 1.0 4.0 0.00 0.00 0.00 68 1011.7
20260508064103 72 110 1.0 4.0 0.00 0.00 0.00 68 1011.7
20260508064003 73 110 1.0 4.0 0.00 0.00 0.00 68 1011.7
20260508063903 73 111 1.0 4.0 0.00 0.00 0.00 68 1011.7
20260508063803 73 111 1.0 4.0 0.00 0.00 0.00 68 1011.7
20260508063703 73 111 1.0 4.0 0.00 0.00 0.00 68 1011.7
20260508063603 73 112 1.0 3.0 0.00 0.00 0.00 68 1011.7
20260508063503 73 112 1.0 3.0 0.00 0.00 0.00 68 1011.7
20260508063403 73 112 1.0 3.0 0.00 0.00 0.00 68 1011.7
20260508063303 73 112 1.0 3.0 0.00 0.00 0.00 68 1011.7
20260508063203 73 113 0.0 3.0 0.00 0.00 0.00 68 1011.7
20260508063103 73 114 0.0 3.0 0.00 0.00 0.00 68 1011.6
20260508063003 73 114 1.0 3.0 0.00 0.00 0.00 69 1011.7
20260508062903 73 113 0.0 3.0 0.00 0.00 0.00 69 1011.7
20260508062803 73 112 1.0 3.0 0.00 0.00 0.00 69 1011.6
20260508062703 73 112 1.0 5.0 0.00 0.00 0.00 69 1011.6
20260508062603 73 112 1.0 5.0 0.00 0.00 0.00 69 1011.6
20260508062503 73 112 1.0 5.0 0.00 0.00 0.00 69 1011.6
20260508062403 73 112 1.0 5.0 0.00 0.00 0.00 69 1011.6
20260508062306 73 112 1.0 5.0 0.00 0.00 0.00 69 1011.6
20260508062203 73 112 1.0 5.0 0.00 0.00 0.00 69 1011.6
20260508062103 73 112 1.0 5.0 0.00 0.00 0.00 69 1011.5
20260508062003 73 112 1.0 5.0 0.00 0.00 0.00 69 1011.5
20260508061903 73 112 1.0 5.0 0.00 0.00 0.00 69 1011.5
20260508061803 73 112 1.0 5.0 0.00 0.00 0.00 70 1011.5
20260508061703 73 112 1.0 4.0 0.00 0.00 0.00 70 1011.5
20260508061603 73 113 1.0 4.0 0.00 0.00 0.00 70 1011.5
20260508061503 73 113 1.0 4.0 0.00 0.00 0.00 70 1011.5
20260508061403 73 113 0.0 4.0 0.00 0.00 0.00 71 1011.5
20260508061303 73 113 0.0 4.0 0.00 0.00 0.00 71 1011.6
20260508061203 72 112 0.0 4.0 0.00 0.00 0.00 72 1011.6
20260508061103 72 112 0.0 4.0 0.00 0.00 0.00 72 1011.6
20260508061003 72 112 1.0 4.0 0.00 0.00 0.00 72 1011.6
20260508060903 72 112 1.0 4.0 0.00 0.00 0.00 72 1011.5
20260508060803 71 112 0.0 4.0 0.00 0.00 0.00 72 1011.4
20260508060703 71 112 1.0 4.0 0.00 0.00 0.00 72 1011.5
20260508060603 71 112 1.0 4.0 0.00 0.00 0.00 72 1011.5
20260508060503 71 112 1.0 4.0 0.00 0.00 0.00 72 1011.6
20260508060403 71 112 1.0 4.0 0.00 0.00 0.00 72 1011.6
20260508060303 71 114 1.0 4.0 0.00 0.00 0.00 72 1011.6
20260508060203 71 114 1.0 4.0 0.00 0.00 0.00 72 1011.6
20260508060003 71 115 0.0 4.0 0.00 0.00 0.00 72 1011.5
20260508055903 71 116 0.0 3.0 0.00 0.00 0.00 72 1011.4
20260508055803 71 117 0.0 3.0 0.00 0.00 0.00 72 1011.4
20260508055703 71 119 0.0 3.0 0.00 0.00 0.00 72 1011.4
20260508055603 71 123 0.0 3.0 0.00 0.00 0.00 73 1011.5
20260508055503 71 122 0.0 3.0 0.00 0.00 0.00 73 1011.5
20260508055403 70 113 0.0 3.0 0.00 0.00 0.00 73 1011.5
20260508055306 70 108 0.0 3.0 0.00 0.00 0.00 73 1011.5
20260508055203 70 108 0.0 3.0 0.00 0.00 0.00 73 1011.6
20260508055103 70 109 0.0 3.0 0.00 0.00 0.00 73 1011.5
20260508055003 70 109 0.0 3.0 0.00 0.00 0.00 72 1011.5
20260508054903 70 108 0.0 3.0 0.00 0.00 0.00 72 1011.5
20260508054804 70 108 0.0 3.0 0.00 0.00 0.00 72 1011.5
20260508054704 70 108 0.0 3.0 0.00 0.00 0.00 72 1011.4
20260508054604 70 108 0.0 3.0 0.00 0.00 0.00 72 1011.5
20260508054504 70 108 0.0 3.0 0.00 0.00 0.00 72 1011.3
20260508054404 70 112 0.0 3.0 0.00 0.00 0.00 72 1011.4
20260508054304 71 112 0.0 2.0 0.00 0.00 0.00 72 1011.3
20260508054204 70 112 0.0 1.0 0.00 0.00 0.00 72 1011.3
20260508054104 71 112 0.0 1.0 0.00 0.00 0.00 72 1011.3
20260508054004 71 112 0.0 1.0 0.00 0.00 0.00 73 1011.4
20260508053904 71 112 0.0 1.0 0.00 0.00 0.00 73 1011.4
20260508053804 71 112 0.0 1.0 0.00 0.00 0.00 73 1011.4
20260508053704 71 112 0.0 1.0 0.00 0.00 0.00 73 1011.4
20260508053604 71 112 0.0 1.0 0.00 0.00 0.00 73 1011.4
20260508053504 70 112 0.0 1.0 0.00 0.00 0.00 74 1011.4
20260508053404 70 112 0.0 1.0 0.00 0.00 0.00 74 1011.3
20260508053304 70 112 0.0 1.0 0.00 0.00 0.00 74 1011.3
20260508053204 70 112 0.0 1.0 0.00 0.00 0.00 75 1011.3
20260508053104 70 108 0.0 1.0 0.00 0.00 0.00 75 1011.2
20260508053004 70 106 0.0 1.0 0.00 0.00 0.00 76 1011.2
20260508052904 70 106 0.0 1.0 0.00 0.00 0.00 76 1011.2
20260508052804 70 106 0.0 1.0 0.00 0.00 0.00 77 1011.1
20260508052704 70 106 0.0 1.0 0.00 0.00 0.00 77 1011.1
20260508052604 69 106 0.0 1.0 0.00 0.00 0.00 77 1011.0
20260508052504 69 106 0.0 1.0 0.00 0.00 0.00 77 1011.1
20260508052404 69 106 0.0 1.0 0.00 0.00 0.00 77 1011.1
20260508052306 69 90 0.0 1.0 0.00 0.00 0.00 78 1011.0
20260508052204 69 90 0.0 1.0 0.00 0.00 0.00 79 1011.0
20260508052104 68 0 0.0 0.0 0.00 0.00 0.00 79 1011.1
20260508052004 68 0 0.0 0.0 0.00 0.00 0.00 79 1011.1
20260508051904 68 0 0.0 0.0 0.00 0.00 0.00 79 1011.0
20260508051804 68 0 0.0 0.0 0.00 0.00 0.00 79 1011.0
20260508051704 67 0 0.0 0.0 0.00 0.00 0.00 79 1011.0
20260508051604 67 0 0.0 0.0 0.00 0.00 0.00 79 1011.0
20260508051504 67 0 0.0 0.0 0.00 0.00 0.00 79 1011.1
20260508051404 67 0 0.0 0.0 0.00 0.00 0.00 79 1011.0
20260508051304 67 0 0.0 0.0 0.00 0.00 0.00 79 1011.0
20260508051204 67 0 0.0 0.0 0.00 0.00 0.00 79 1011.0
20260508051104 67 0 0.0 0.0 0.00 0.00 0.00 79 1011.0
20260508051004 67 0 0.0 0.0 0.00 0.00 0.00 79 1011.0
20260508050904 67 0 0.0 0.0 0.00 0.00 0.00 79 1011.0
20260508050804 67 0 0.0 0.0 0.00 0.00 0.00 80 1010.9
20260508050704 67 0 0.0 0.0 0.00 0.00 0.00 80 1011.0
20260508050603 67 0 0.0 0.0 0.00 0.00 0.00 80 1011.0
20260508050503 67 0 0.0 0.0 0.00 0.00 0.00 80 1011.0
20260508050403 67 0 0.0 0.0 0.00 0.00 0.00 80 1011.0
20260508050303 67 0 0.0 0.0 0.00 0.00 0.00 80 1010.9
20260508050203 67 0 0.0 0.0 0.00 0.00 0.00 80 1010.9
20260508050103 67 0 0.0 0.0 0.00 0.00 0.00 80 1010.9
20260508050004 67 0 0.0 0.0 0.00 0.00 0.00 80 1010.9
20260508045903 67 0 0.0 0.0 0.00 0.00 0.00 80 1011.0
20260508045803 67 0 0.0 0.0 0.00 0.00 0.00 80 1010.8
20260508045703 67 0 0.0 0.0 0.00 0.00 0.00 80 1010.9
20260508045603 67 0 0.0 0.0 0.00 0.00 0.00 80 1010.9
20260508045503 66 0 0.0 0.0 0.00 0.00 0.00 80 1010.9
20260508045403 66 0 0.0 0.0 0.00 0.00 0.00 80 1010.9
20260508045306 66 0 0.0 0.0 0.00 0.00 0.00 80 1010.9
20260508045203 66 0 0.0 0.0 0.00 0.00 0.00 80 1010.9
20260508045103 66 0 0.0 0.0 0.00 0.00 0.00 80 1010.8
20260508045003 66 0 0.0 0.0 0.00 0.00 0.00 80 1010.8
20260508044903 66 0 0.0 0.0 0.00 0.00 0.00 80 1010.7
20260508044803 66 0 0.0 0.0 0.00 0.00 0.00 80 1010.7
20260508044703 66 0 0.0 0.0 0.00 0.00 0.00 80 1010.7
20260508044603 66 0 0.0 0.0 0.00 0.00 0.00 80 1010.7
20260508044504 66 0 0.0 0.0 0.00 0.00 0.00 81 1010.7
20260508044403 66 0 0.0 0.0 0.00 0.00 0.00 80 1010.8
20260508044303 66 0 0.0 0.0 0.00 0.00 0.00 81 1010.8
20260508044203 66 0 0.0 0.0 0.00 0.00 0.00 81 1010.6
20260508044103 65 0 0.0 0.0 0.00 0.00 0.00 81 1010.6
20260508044003 65 0 0.0 0.0 0.00 0.00 0.00 80 1010.6
20260508043903 65 0 0.0 0.0 0.00 0.00 0.00 81 1010.7
20260508043803 65 0 0.0 0.0 0.00 0.00 0.00 81 1010.7
20260508043703 65 0 0.0 0.0 0.00 0.00 0.00 81 1010.6
20260508043603 65 0 0.0 0.0 0.00 0.00 0.00 81 1010.7
20260508043503 65 0 0.0 0.0 0.00 0.00 0.00 81 1010.6
20260508043403 65 0 0.0 0.0 0.00 0.00 0.00 81 1010.6
20260508043303 65 0 0.0 0.0 0.00 0.00 0.00 81 1010.6
20260508043203 65 0 0.0 0.0 0.00 0.00 0.00 81 1010.6
20260508043103 65 0 0.0 0.0 0.00 0.00 0.00 81 1010.6
20260508043003 65 0 0.0 0.0 0.00 0.00 0.00 81 1010.6
20260508042903 65 0 0.0 0.0 0.00 0.00 0.00 81 1010.6
20260508042803 65 0 0.0 0.0 0.00 0.00 0.00 81 1010.5
20260508042703 65 0 0.0 0.0 0.00 0.00 0.00 81 1010.6
20260508042603 65 0 0.0 0.0 0.00 0.00 0.00 81 1010.5
20260508042503 65 0 0.0 0.0 0.00 0.00 0.00 81 1010.5
20260508042403 65 0 0.0 0.0 0.00 0.00 0.00 81 1010.5
20260508042306 65 0 0.0 0.0 0.00 0.00 0.00 81 1010.5
20260508042203 65 0 0.0 0.0 0.00 0.00 0.00 81 1010.4
20260508042103 65 0 0.0 0.0 0.00 0.00 0.00 81 1010.3
20260508042003 65 0 0.0 0.0 0.00 0.00 0.00 81 1010.3
20260508041903 65 0 0.0 0.0 0.00 0.00 0.00 81 1010.3
20260508041803 65 0 0.0 0.0 0.00 0.00 0.00 81 1010.2
20260508041703 65 0 0.0 0.0 0.00 0.00 0.00 81 1010.2
20260508041603 65 0 0.0 0.0 0.00 0.00 0.00 81 1010.3
20260508041504 65 0 0.0 0.0 0.00 0.00 0.00 81 1010.3
20260508041403 65 0 0.0 0.0 0.00 0.00 0.00 81 1010.3
20260508041303 65 0 0.0 0.0 0.00 0.00 0.00 81 1010.3
20260508041203 65 0 0.0 0.0 0.00 0.00 0.00 81 1010.3
20260508041103 65 0 0.0 0.0 0.00 0.00 0.00 81 1010.2
20260508041003 65 0 0.0 0.0 0.00 0.00 0.00 81 1010.2
20260508040903 65 0 0.0 0.0 0.00 0.00 0.00 81 1010.3
20260508040803 65 0 0.0 0.0 0.00 0.00 0.00 81 1010.2
20260508040703 65 0 0.0 0.0 0.00 0.00 0.00 81 1010.1
20260508040603 65 0 0.0 0.0 0.00 0.00 0.00 81 1010.2
20260508040503 65 0 0.0 0.0 0.00 0.00 0.00 81 1010.1
20260508040403 65 0 0.0 0.0 0.00 0.00 0.00 81 1010.2
20260508040303 65 0 0.0 0.0 0.00 0.00 0.00 81 1010.0
20260508040203 65 0 0.0 0.0 0.00 0.00 0.00 81 1010.1
20260508040003 65 0 0.0 0.0 0.00 0.00 0.00 81 1010.2
20260508035903 65 0 0.0 0.0 0.00 0.00 0.00 81 1010.1
20260508035803 65 0 0.0 0.0 0.00 0.00 0.00 81 1010.0
20260508035703 65 0 0.0 0.0 0.00 0.00 0.00 81 1010.1
20260508035603 65 0 0.0 0.0 0.00 0.00 0.00 81 1010.1
20260508035503 65 0 0.0 0.0 0.00 0.00 0.00 81 1010.2
20260508035403 65 0 0.0 0.0 0.00 0.00 0.00 81 1010.1
20260508035306 65 0 0.0 0.0 0.00 0.00 0.00 81 1010.2
20260508035203 65 0 0.0 0.0 0.00 0.00 0.00 81 1010.2
20260508035103 65 0 0.0 0.0 0.00 0.00 0.00 81 1010.2
20260508035003 65 0 0.0 0.0 0.00 0.00 0.00 81 1010.3
20260508034903 65 0 0.0 0.0 0.00 0.00 0.00 81 1010.3
20260508034803 65 112 0.0 1.0 0.00 0.00 0.00 81 1010.2
20260508034703 65 112 0.0 1.0 0.00 0.00 0.00 81 1010.2
20260508034603 65 112 0.0 1.0 0.00 0.00 0.00 81 1010.2
20260508034503 65 112 0.0 1.0 0.00 0.00 0.00 81 1010.1
20260508034403 65 112 0.0 1.0 0.00 0.00 0.00 81 1010.0
20260508034303 65 112 0.0 1.0 0.00 0.00 0.00 81 1010.0
20260508034203 65 112 0.0 1.0 0.00 0.00 0.00 81 1010.0
20260508034103 65 112 0.0 1.0 0.00 0.00 0.00 81 1010.0
20260508034003 65 112 0.0 1.0 0.00 0.00 0.00 81 1009.8
20260508033903 65 112 0.0 2.0 0.00 0.00 0.00 81 1009.8
20260508033803 65 112 0.0 2.0 0.00 0.00 0.00 81 1009.8
20260508033703 65 112 0.0 2.0 0.00 0.00 0.00 80 1009.8
20260508033603 65 112 0.0 2.0 0.00 0.00 0.00 80 1009.8
20260508033503 65 112 0.0 2.0 0.00 0.00 0.00 80 1009.8
20260508033403 65 112 0.0 2.0 0.00 0.00 0.00 80 1009.8
20260508033303 65 112 0.0 2.0 0.00 0.00 0.00 80 1009.8
20260508033203 65 112 0.0 2.0 0.00 0.00 0.00 80 1009.9
20260508033103 65 112 0.0 2.0 0.00 0.00 0.00 80 1009.8
20260508033003 65 112 0.0 2.0 0.00 0.00 0.00 80 1009.8
20260508032903 65 0 0.0 0.0 0.00 0.00 0.00 80 1009.8
20260508032803 65 0 0.0 0.0 0.00 0.00 0.00 80 1009.8
20260508032703 65 0 0.0 0.0 0.00 0.00 0.00 80 1009.7
20260508032603 65 0 0.0 0.0 0.00 0.00 0.00 80 1009.6
20260508032503 65 0 0.0 0.0 0.00 0.00 0.00 80 1009.5
20260508032403 65 0 0.0 0.0 0.00 0.00 0.00 80 1009.5
20260508032306 65 0 0.0 0.0 0.00 0.00 0.00 80 1009.6
20260508032203 65 0 0.0 0.0 0.00 0.00 0.00 80 1009.6
20260508032104 65 0 0.0 0.0 0.00 0.00 0.00 80 1009.6
20260508032004 65 0 0.0 0.0 0.00 0.00 0.00 80 1009.6
20260508031904 65 0 0.0 0.0 0.00 0.00 0.00 80 1009.6
20260508031804 65 0 0.0 0.0 0.00 0.00 0.00 80 1009.6
20260508031704 65 0 0.0 0.0 0.00 0.00 0.00 80 1009.6
20260508031604 65 0 0.0 0.0 0.00 0.00 0.00 80 1009.6
20260508031504 65 0 0.0 0.0 0.00 0.00 0.00 80 1009.5
20260508031404 65 0 0.0 0.0 0.00 0.00 0.00 80 1009.6
20260508031304 65 0 0.0 0.0 0.00 0.00 0.00 80 1009.6
20260508031204 65 0 0.0 0.0 0.00 0.00 0.00 80 1009.5
20260508031104 65 0 0.0 0.0 0.00 0.00 0.00 80 1009.5
20260508031004 65 0 0.0 0.0 0.00 0.00 0.00 80 1009.5
20260508030904 65 0 0.0 0.0 0.00 0.00 0.00 80 1009.5
20260508030804 65 0 0.0 0.0 0.00 0.00 0.00 80 1009.4
20260508030704 65 0 0.0 0.0 0.00 0.00 0.00 80 1009.4
20260508030604 65 0 0.0 0.0 0.00 0.00 0.00 80 1009.5
20260508030504 65 0 0.0 0.0 0.00 0.00 0.00 80 1009.4
20260508030404 65 0 0.0 0.0 0.00 0.00 0.00 80 1009.5
20260508030304 65 0 0.0 0.0 0.00 0.00 0.00 80 1009.5
20260508030204 65 0 0.0 0.0 0.00 0.00 0.00 80 1009.5
20260508030104 65 0 0.0 0.0 0.00 0.00 0.00 80 1009.5
20260508030004 65 0 0.0 0.0 0.00 0.00 0.00 80 1009.5
20260508025904 65 0 0.0 0.0 0.00 0.00 0.00 80 1009.5
20260508025804 65 0 0.0 0.0 0.00 0.00 0.00 80 1009.3
20260508025704 65 0 0.0 0.0 0.00 0.00 0.00 80 1009.3
20260508025604 65 0 0.0 0.0 0.00 0.00 0.00 80 1009.3
20260508025504 65 0 0.0 0.0 0.00 0.00 0.00 80 1009.3
20260508025404 65 0 0.0 0.0 0.00 0.00 0.00 80 1009.3
20260508025306 65 0 0.0 0.0 0.00 0.00 0.00 80 1009.3
20260508025204 65 0 0.0 0.0 0.00 0.00 0.00 80 1009.4
20260508025104 65 292 0.0 1.0 0.00 0.00 0.00 81 1009.4
20260508025004 65 292 0.0 1.0 0.00 0.00 0.00 81 1009.4
20260508024904 65 292 0.0 1.0 0.00 0.00 0.00 81 1009.4
20260508024804 65 292 0.0 1.0 0.00 0.00 0.00 81 1009.4
20260508024704 65 292 0.0 1.0 0.00 0.00 0.00 81 1009.4
20260508024604 65 292 0.0 1.0 0.00 0.00 0.00 81 1009.4
20260508024504 65 292 0.0 1.0 0.00 0.00 0.00 81 1009.5
20260508024404 65 292 0.0 1.0 0.00 0.00 0.00 81 1009.4
20260508024303 65 292 0.0 1.0 0.00 0.00 0.00 81 1009.5
20260508024204 65 292 0.0 1.0 0.00 0.00 0.00 81 1009.5
20260508024104 65 292 0.0 1.0 0.00 0.00 0.00 80 1009.5
20260508024004 65 292 0.0 1.0 0.00 0.00 0.00 80 1009.5
20260508023904 65 292 0.0 1.0 0.00 0.00 0.00 80 1009.4
20260508023804 65 292 0.0 1.0 0.00 0.00 0.00 80 1009.5
20260508023703 65 296 0.0 1.0 0.00 0.00 0.00 80 1009.5
20260508023603 65 296 0.0 1.0 0.00 0.00 0.00 80 1009.5
20260508023504 65 296 0.0 1.0 0.00 0.00 0.00 80 1009.4
20260508023403 65 296 0.0 1.0 0.00 0.00 0.00 80 1009.3
20260508023303 65 296 0.0 1.0 0.00 0.00 0.00 80 1009.4
20260508023203 65 298 0.0 1.0 0.00 0.00 0.00 80 1009.4
20260508023103 65 298 0.0 1.0 0.00 0.00 0.00 80 1009.3
20260508023003 65 315 0.0 1.0 0.00 0.00 0.00 80 1009.4
20260508022903 65 315 0.0 1.0 0.00 0.00 0.00 80 1009.4
20260508022803 65 315 0.0 1.0 0.00 0.00 0.00 80 1009.4
20260508022704 65 0 0.0 0.0 0.00 0.00 0.00 80 1009.3
20260508022603 65 0 0.0 0.0 0.00 0.00 0.00 80 1009.3
20260508022503 65 0 0.0 0.0 0.00 0.00 0.00 80 1009.3
20260508022403 65 0 0.0 0.0 0.00 0.00 0.00 80 1009.2
20260508022306 65 0 0.0 0.0 0.00 0.00 0.00 80 1009.2
20260508022204 65 0 0.0 0.0 0.00 0.00 0.00 80 1009.2
20260508022103 65 0 0.0 0.0 0.00 0.00 0.00 80 1009.2
20260508022003 65 0 0.0 0.0 0.00 0.00 0.00 80 1009.2
20260508021903 65 0 0.0 0.0 0.00 0.00 0.00 80 1009.2
20260508021803 65 0 0.0 0.0 0.00 0.00 0.00 80 1009.2
20260508021703 65 0 0.0 0.0 0.00 0.00 0.00 80 1009.2
20260508021603 65 0 0.0 0.0 0.00 0.00 0.00 80 1009.2
20260508021503 65 0 0.0 0.0 0.00 0.00 0.00 80 1009.2
20260508021403 65 0 0.0 0.0 0.00 0.00 0.00 80 1009.2
20260508021303 65 0 0.0 0.0 0.00 0.00 0.00 80 1009.1
20260508021203 65 0 0.0 0.0 0.00 0.00 0.00 80 1009.2
20260508021103 65 0 0.0 0.0 0.00 0.00 0.00 80 1009.2
20260508021003 65 0 0.0 0.0 0.00 0.00 0.00 80 1009.2
20260508020903 65 0 0.0 0.0 0.00 0.00 0.00 80 1009.3
20260508020803 65 0 0.0 0.0 0.00 0.00 0.00 80 1009.2
20260508020703 65 0 0.0 0.0 0.00 0.00 0.00 80 1009.2
20260508020603 65 0 0.0 0.0 0.00 0.00 0.00 80 1009.4
20260508020503 65 0 0.0 0.0 0.00 0.00 0.00 79 1009.5
20260508020403 65 0 0.0 0.0 0.00 0.00 0.00 80 1009.5
20260508020303 65 0 0.0 0.0 0.00 0.00 0.00 79 1009.5
20260508020203 65 0 0.0 0.0 0.00 0.00 0.00 79 1009.6
20260508020103 65 0 0.0 0.0 0.00 0.00 0.00 79 1009.6
20260508020003 65 0 0.0 0.0 0.00 0.00 0.00 79 1009.6
20260508015903 65 0 0.0 0.0 0.00 0.00 0.00 79 1009.6
20260508015803 65 0 0.0 0.0 0.00 0.00 0.00 79 1009.6
20260508015703 65 0 0.0 0.0 0.00 0.00 0.00 79 1009.7
20260508015603 65 0 0.0 0.0 0.00 0.00 0.00 79 1009.5
20260508015503 65 0 0.0 0.0 0.00 0.00 0.00 79 1009.5
20260508015403 65 0 0.0 0.0 0.00 0.00 0.00 79 1009.6
20260508015306 65 0 0.0 0.0 0.00 0.00 0.00 79 1009.5